Wetterdaten: Montag, 30.09.2019
Datum Zeit Temp. Aussen Temp. o. S. +5cm Feuchte Auss Luftdruck Regen Sonnenschein Regendauer Solar Windben Empfang
30.09.2019 00:00 14,9 C 13,3 C 18,3 C 97 % 996,8 hPa 0,0 l/m 0 min 0 min 0 W/m 19,3 km/h (3 Bft) 100,00 %
30.09.2019 00:02 14,9 C 13,3 C 18,3 C 97 % 996,9 hPa 0,0 l/m 0 min 0 min 0 W/m 22,5 km/h (4 Bft) 100,00 %
30.09.2019 00:04 14,9 C 13,3 C 18,3 C 97 % 996,9 hPa 0,0 l/m 0 min 0 min 0 W/m 19,3 km/h (3 Bft) 100,00 %
30.09.2019 00:08 14,9 C 13,3 C 18,3 C 98 % 996,9 hPa 0,0 l/m 0 min 0 min 0 W/m 25,7 km/h (4 Bft) 100,00 %
30.09.2019 00:10 14,9 C 13,3 C 18,3 C 98 % 996,9 hPa 0,0 l/m 0 min 0 min 0 W/m 19,3 km/h (3 Bft) 100,00 %
30.09.2019 00:12 14,8 C 13,3 C 18,3 C 98 % 997,0 hPa 0,0 l/m 0 min 0 min 0 W/m 25,7 km/h (4 Bft) 100,00 %
30.09.2019 00:14 14,8 C 13,3 C 18,3 C 98 % 997,0 hPa 0,0 l/m 0 min 0 min 0 W/m 16,1 km/h (3 Bft) 100,00 %
30.09.2019 00:16 14,8 C 13,3 C 18,3 C 98 % 996,9 hPa 0,0 l/m 0 min 0 min 0 W/m 19,3 km/h (3 Bft) 100,00 %
30.09.2019 00:18 14,8 C 13,3 C 18,3 C 98 % 997,0 hPa 0,0 l/m 0 min 0 min 0 W/m 19,3 km/h (3 Bft) 97,87 %
30.09.2019 00:20 14,8 C 13,3 C 18,3 C 98 % 997,1 hPa 0,0 l/m 0 min 0 min 0 W/m 25,7 km/h (4 Bft) 100,00 %
30.09.2019 00:22 14,8 C 13,3 C 18,3 C 98 % 997,0 hPa 0,0 l/m 0 min 0 min 0 W/m 19,3 km/h (3 Bft) 97,87 %
30.09.2019 00:24 14,8 C 13,3 C 18,3 C 98 % 997,1 hPa 0,0 l/m 0 min 0 min 0 W/m 22,5 km/h (4 Bft) 100,00 %
30.09.2019 00:26 14,8 C 13,3 C 18,3 C 98 % 997,2 hPa 0,0 l/m 0 min 0 min 0 W/m 19,3 km/h (3 Bft) 100,00 %
30.09.2019 00:28 14,8 C 13,3 C 18,3 C 98 % 997,1 hPa 0,0 l/m 0 min 0 min 0 W/m 29,0 km/h (5 Bft) 97,87 %
30.09.2019 00:30 14,8 C 13,3 C 18,3 C 98 % 997,1 hPa 0,0 l/m 0 min 0 min 0 W/m 19,3 km/h (3 Bft) 100,00 %
30.09.2019 00:32 14,8 C 13,3 C 18,3 C 98 % 997,1 hPa 0,0 l/m 0 min 0 min 0 W/m 19,3 km/h (3 Bft) 100,00 %
30.09.2019 00:34 14,8 C 13,3 C 18,3 C 98 % 997,2 hPa 0,0 l/m 0 min 0 min 0 W/m 22,5 km/h (4 Bft) 95,74 %
30.09.2019 00:36 14,8 C 13,3 C 18,3 C 98 % 997,3 hPa 0,0 l/m 0 min 0 min 0 W/m 35,4 km/h (5 Bft) 100,00 %
30.09.2019 00:38 14,8 C 13,3 C 18,3 C 98 % 997,2 hPa 0,0 l/m 0 min 0 min 0 W/m 19,3 km/h (3 Bft) 100,00 %
30.09.2019 00:40 14,8 C 13,3 C 18,3 C 98 % 997,2 hPa 0,0 l/m 0 min 0 min 0 W/m 25,7 km/h (4 Bft) 100,00 %
30.09.2019 00:42 14,8 C 13,3 C 18,3 C 98 % 997,2 hPa 0,0 l/m 0 min 0 min 0 W/m 29,0 km/h (5 Bft) 100,00 %
30.09.2019 00:44 14,8 C 13,3 C 18,3 C 98 % 997,1 hPa 0,0 l/m 0 min 0 min 0 W/m 35,4 km/h (5 Bft) 97,87 %
30.09.2019 00:46 14,7 C 13,3 C 18,3 C 98 % 997,3 hPa 0,0 l/m 0 min 0 min 0 W/m 35,4 km/h (5 Bft) 100,00 %
30.09.2019 00:48 14,7 C 13,9 C 18,3 C 98 % 997,3 hPa 0,0 l/m 0 min 0 min 0 W/m 25,7 km/h (4 Bft) 100,00 %
30.09.2019 00:50 14,8 C 13,9 C 18,3 C 98 % 997,3 hPa 0,0 l/m 0 min 0 min 0 W/m 19,3 km/h (3 Bft) 100,00 %
30.09.2019 00:52 14,8 C 13,9 C 18,3 C 98 % 997,3 hPa 0,0 l/m 0 min 0 min 0 W/m 38,6 km/h (5 Bft) 100,00 %
30.09.2019 00:54 14,8 C 13,9 C 18,3 C 98 % 997,3 hPa 0,0 l/m 0 min 0 min 0 W/m 25,7 km/h (4 Bft) 100,00 %
30.09.2019 00:56 14,7 C 13,9 C 18,3 C 98 % 997,4 hPa 0,0 l/m 0 min 0 min 0 W/m 19,3 km/h (3 Bft) 100,00 %
30.09.2019 00:58 14,7 C 13,9 C 18,3 C 98 % 997,4 hPa 0,0 l/m 0 min 0 min 0 W/m 25,7 km/h (4 Bft) 93,62 %
30.09.2019 01:00 14,7 C 13,9 C 18,3 C 98 % 997,8 hPa 0,0 l/m 0 min 0 min 0 W/m 35,4 km/h (5 Bft) 93,62 %
30.09.2019 01:02 14,7 C 13,9 C 18,3 C 98 % 997,5 hPa 0,0 l/m 0 min 0 min 0 W/m 19,3 km/h (3 Bft) 95,74 %
30.09.2019 01:04 14,7 C 13,9 C 18,3 C 98 % 997,5 hPa 0,0 l/m 0 min 0 min 0 W/m 22,5 km/h (4 Bft) 95,74 %
30.09.2019 01:06 14,7 C 13,9 C 18,3 C 98 % 997,6 hPa 0,0 l/m 0 min 0 min 0 W/m 25,7 km/h (4 Bft) 95,65 %
30.09.2019 01:08 14,7 C 13,9 C 18,3 C 98 % 997,6 hPa 0,0 l/m 0 min 0 min 0 W/m 16,1 km/h (3 Bft) 95,74 %
30.09.2019 01:10 14,7 C 13,9 C 18,3 C 98 % 997,7 hPa 0,0 l/m 0 min 0 min 0 W/m 25,7 km/h (4 Bft) 95,74 %
30.09.2019 01:12 14,8 C 13,9 C 18,3 C 98 % 997,6 hPa 0,0 l/m 0 min 0 min 0 W/m 22,5 km/h (4 Bft) 93,62 %
30.09.2019 01:14 14,7 C 13,9 C 18,3 C 98 % 997,7 hPa 0,0 l/m 0 min 0 min 0 W/m 19,3 km/h (3 Bft) 95,74 %
30.09.2019 01:16 14,7 C 13,9 C 18,3 C 98 % 997,7 hPa 0,0 l/m 0 min 0 min 0 W/m 12,9 km/h (3 Bft) 93,62 %
30.09.2019 01:18 14,7 C 13,9 C 18,3 C 98 % 997,9 hPa 0,0 l/m 0 min 0 min 0 W/m 25,7 km/h (4 Bft) 95,65 %
30.09.2019 01:20 14,8 C 13,3 C 18,3 C 98 % 997,8 hPa 0,0 l/m 0 min 2 min 0 W/m 22,5 km/h (4 Bft) 95,74 %
30.09.2019 01:22 14,7 C 13,3 C 18,3 C 98 % 997,9 hPa 0,2 l/m 0 min 2 min 0 W/m 16,1 km/h (3 Bft) 95,74 %
30.09.2019 01:24 14,7 C 13,3 C 18,3 C 98 % 997,9 hPa 0,0 l/m 0 min 2 min 0 W/m 22,5 km/h (4 Bft) 95,74 %
30.09.2019 01:26 14,7 C 13,3 C 18,3 C 98 % 998,0 hPa 0,0 l/m 0 min 2 min 0 W/m 16,1 km/h (3 Bft) 95,74 %
30.09.2019 01:28 14,7 C 13,3 C 18,3 C 98 % 998,0 hPa 0,0 l/m 0 min 2 min 0 W/m 22,5 km/h (4 Bft) 95,24 %
30.09.2019 01:30 14,7 C 13,3 C 18,3 C 98 % 998,0 hPa 0,0 l/m 0 min 2 min 0 W/m 16,1 km/h (3 Bft) 95,74 %
30.09.2019 01:32 14,7 C 13,3 C 18,3 C 98 % 998,1 hPa 0,2 l/m 0 min 0 min 0 W/m 12,9 km/h (3 Bft) 95,74 %
30.09.2019 01:34 14,7 C 13,3 C 18,3 C 98 % 998,2 hPa 0,0 l/m 0 min 0 min 0 W/m 35,4 km/h (5 Bft) 93,48 %
30.09.2019 01:36 14,7 C 13,3 C 18,3 C 98 % 998,2 hPa 0,0 l/m 0 min 2 min 0 W/m 16,1 km/h (3 Bft) 93,62 %
30.09.2019 01:38 14,7 C 13,3 C 18,3 C 98 % 998,4 hPa 0,0 l/m 0 min 0 min 0 W/m 19,3 km/h (3 Bft) 93,62 %
30.09.2019 01:40 14,7 C 13,3 C 18,3 C 98 % 998,5 hPa 0,0 l/m 0 min 0 min 0 W/m 25,7 km/h (4 Bft) 93,62 %
30.09.2019 01:42 14,7 C 13,3 C 18,3 C 98 % 998,4 hPa 0,0 l/m 0 min 0 min 0 W/m 35,4 km/h (5 Bft) 91,49 %
30.09.2019 01:44 14,6 C 13,3 C 18,3 C 98 % 998,4 hPa 0,0 l/m 0 min 2 min 0 W/m 19,3 km/h (3 Bft) 93,62 %
30.09.2019 01:46 14,6 C 13,3 C 18,3 C 98 % 998,4 hPa 0,0 l/m 0 min 2 min 0 W/m 29,0 km/h (5 Bft) 97,83 %
30.09.2019 01:48 14,6 C 13,3 C 18,3 C 98 % 998,5 hPa 0,0 l/m 0 min 0 min 0 W/m 16,1 km/h (3 Bft) 95,74 %
30.09.2019 01:50 14,6 C 13,3 C 18,3 C 98 % 998,5 hPa 0,0 l/m 0 min 0 min 0 W/m 19,3 km/h (3 Bft) 95,74 %
30.09.2019 01:52 14,6 C 13,3 C 18,3 C 98 % 998,7 hPa 0,0 l/m 0 min 0 min 0 W/m 16,1 km/h (3 Bft) 93,62 %
30.09.2019 01:54 14,6 C 13,3 C 18,3 C 98 % 998,7 hPa 0,0 l/m 0 min 0 min 0 W/m 16,1 km/h (3 Bft) 97,87 %
30.09.2019 01:56 14,6 C 13,3 C 18,3 C 98 % 998,7 hPa 0,0 l/m 0 min 0 min 0 W/m 16,1 km/h (3 Bft) 97,87 %
30.09.2019 01:58 14,6 C 13,3 C 18,3 C 98 % 998,9 hPa 0,0 l/m 0 min 0 min 0 W/m 19,3 km/h (3 Bft) 97,83 %
30.09.2019 02:00 14,6 C 13,3 C 18,3 C 98 % 998,8 hPa 0,0 l/m 0 min 0 min 0 W/m 16,1 km/h (3 Bft) 97,87 %
30.09.2019 02:02 14,7 C 13,3 C 18,3 C 98 % 999,0 hPa 0,0 l/m 0 min 2 min 0 W/m 32,2 km/h (5 Bft) 93,62 %
30.09.2019 02:04 14,7 C 13,3 C 18,3 C 98 % 999,0 hPa 0,0 l/m 0 min 0 min 0 W/m 16,1 km/h (3 Bft) 95,74 %
30.09.2019 02:06 14,7 C 13,3 C 18,3 C 98 % 999,1 hPa 0,2 l/m 0 min 2 min 0 W/m 29,0 km/h (5 Bft) 95,74 %
30.09.2019 02:08 14,7 C 13,3 C 18,3 C 98 % 999,3 hPa 0,0 l/m 0 min 2 min 0 W/m 25,7 km/h (4 Bft) 97,87 %
30.09.2019 02:10 14,7 C 13,3 C 18,3 C 98 % 999,2 hPa 0,0 l/m 0 min 2 min 0 W/m 22,5 km/h (4 Bft) 93,48 %
30.09.2019 02:12 14,7 C 13,3 C 18,3 C 98 % 999,2 hPa 0,0 l/m 0 min 0 min 0 W/m 25,7 km/h (4 Bft) 97,87 %
30.09.2019 02:14 14,7 C 13,3 C 18,3 C 98 % 999,2 hPa 0,0 l/m 0 min 2 min 0 W/m 16,1 km/h (3 Bft) 95,74 %
30.09.2019 02:16 14,7 C 13,3 C 18,3 C 98 % 999,3 hPa 0,2 l/m 0 min 2 min 0 W/m 19,3 km/h (3 Bft) 97,87 %
30.09.2019 02:18 14,7 C 13,3 C 18,3 C 98 % 999,4 hPa 0,0 l/m 0 min 2 min 0 W/m 12,9 km/h (3 Bft) 97,87 %
30.09.2019 02:20 14,7 C 13,3 C 18,3 C 98 % 999,6 hPa 0,0 l/m 0 min 2 min 0 W/m 16,1 km/h (3 Bft) 97,87 %
30.09.2019 02:22 14,7 C 13,3 C 18,3 C 98 % 999,5 hPa 0,0 l/m 0 min 2 min 0 W/m 12,9 km/h (3 Bft) 97,83 %
30.09.2019 02:24 14,7 C 13,3 C 18,3 C 98 % 999,6 hPa 0,0 l/m 0 min 0 min 0 W/m 25,7 km/h (4 Bft) 97,87 %
30.09.2019 02:26 14,7 C 13,3 C 18,3 C 98 % 999,6 hPa 0,0 l/m 0 min 2 min 0 W/m 32,2 km/h (5 Bft) 97,87 %
30.09.2019 02:28 14,7 C 13,3 C 18,3 C 98 % 999,7 hPa 0,0 l/m 0 min 2 min 0 W/m 16,1 km/h (3 Bft) 97,87 %
30.09.2019 02:30 14,7 C 13,3 C 18,3 C 98 % 999,8 hPa 0,0 l/m 0 min 0 min 0 W/m 22,5 km/h (4 Bft) 97,87 %
30.09.2019 02:32 14,7 C 13,3 C 18,3 C 98 % 999,9 hPa 0,0 l/m 0 min 0 min 0 W/m 16,1 km/h (3 Bft) 95,74 %
30.09.2019 02:34 14,7 C 13,3 C 18,3 C 98 % 999,9 hPa 0,0 l/m 0 min 0 min 0 W/m 9,7 km/h (2 Bft) 97,83 %
30.09.2019 02:36 14,7 C 13,3 C 18,3 C 98 % 1000,1 hPa 0,0 l/m 0 min 0 min 0 W/m 19,3 km/h (3 Bft) 95,74 %
30.09.2019 02:38 14,6 C 13,3 C 18,3 C 98 % 1000,2 hPa 0,2 l/m 0 min 0 min 0 W/m 22,5 km/h (4 Bft) 97,87 %
30.09.2019 02:40 14,6 C 13,3 C 18,3 C 98 % 1000,2 hPa 0,0 l/m 0 min 0 min 0 W/m 19,3 km/h (3 Bft) 97,87 %
30.09.2019 02:42 14,6 C 13,3 C 18,3 C 98 % 1000,5 hPa 0,0 l/m 0 min 0 min 0 W/m 12,9 km/h (3 Bft) 97,87 %
30.09.2019 02:44 14,6 C 13,3 C 18,3 C 98 % 1000,3 hPa 0,0 l/m 0 min 0 min 0 W/m 32,2 km/h (5 Bft) 97,87 %
30.09.2019 02:46 14,5 C 13,3 C 18,3 C 98 % 1000,5 hPa 0,0 l/m 0 min 0 min 0 W/m 9,7 km/h (2 Bft) 97,83 %
30.09.2019 02:48 14,5 C 13,3 C 18,3 C 98 % 1000,6 hPa 0,0 l/m 0 min 0 min 0 W/m 19,3 km/h (3 Bft) 97,87 %
30.09.2019 02:50 14,5 C 13,3 C 18,3 C 98 % 1000,7 hPa 0,0 l/m 0 min 2 min 0 W/m 22,5 km/h (4 Bft) 100,00 %
30.09.2019 02:52 14,5 C 13,3 C 18,3 C 98 % 1000,9 hPa 0,0 l/m 0 min 2 min 0 W/m 19,3 km/h (3 Bft) 100,00 %
30.09.2019 02:54 14,5 C 13,3 C 18,3 C 98 % 1000,8 hPa 0,0 l/m 0 min 2 min 0 W/m 22,5 km/h (4 Bft) 100,00 %
30.09.2019 02:56 14,4 C 13,3 C 18,3 C 98 % 1000,7 hPa 0,0 l/m 0 min 0 min 0 W/m 19,3 km/h (3 Bft) 100,00 %
30.09.2019 02:58 14,4 C 13,3 C 18,3 C 98 % 1000,9 hPa 0,0 l/m 0 min 0 min 0 W/m 9,7 km/h (2 Bft) 100,00 %
30.09.2019 03:00 14,4 C 13,3 C 18,3 C 98 % 1001,1 hPa 0,0 l/m 0 min 0 min 0 W/m 9,7 km/h (2 Bft) 100,00 %
30.09.2019 03:02 14,4 C 13,3 C 18,3 C 98 % 1001,1 hPa 0,0 l/m 0 min 2 min 0 W/m 25,7 km/h (4 Bft) 100,00 %
30.09.2019 03:04 14,3 C 12,8 C 18,3 C 98 % 1001,3 hPa 0,0 l/m 0 min 2 min 0 W/m 19,3 km/h (3 Bft) 97,87 %
30.09.2019 03:06 14,3 C 12,8 C 18,3 C 98 % 1001,3 hPa 0,0 l/m 0 min 2 min 0 W/m 19,3 km/h (3 Bft) 100,00 %
30.09.2019 03:08 14,2 C 12,8 C 18,3 C 98 % 1001,3 hPa 0,0 l/m 0 min 2 min 0 W/m 22,5 km/h (4 Bft) 100,00 %
30.09.2019 03:10 14,2 C 12,8 C 18,3 C 98 % 1001,6 hPa 0,0 l/m 0 min 2 min 0 W/m 32,2 km/h (5 Bft) 97,87 %
30.09.2019 03:12 14,2 C 12,8 C 18,3 C 98 % 1001,5 hPa 0,0 l/m 0 min 0 min 0 W/m 29,0 km/h (5 Bft) 100,00 %
30.09.2019 03:14 14,2 C 12,8 C 18,3 C 98 % 1001,6 hPa 0,0 l/m 0 min 0 min 0 W/m 12,9 km/h (3 Bft) 100,00 %
30.09.2019 03:16 14,2 C 12,8 C 18,3 C 98 % 1001,7 hPa 0,0 l/m 0 min 0 min 0 W/m 16,1 km/h (3 Bft) 100,00 %
30.09.2019 03:18 14,2 C 12,8 C 18,3 C 98 % 1001,7 hPa 0,0 l/m 0 min 0 min 0 W/m 19,3 km/h (3 Bft) 100,00 %
30.09.2019 03:20 14,1 C 12,8 C 18,3 C 98 % 1001,8 hPa 0,0 l/m 0 min 0 min 0 W/m 16,1 km/h (3 Bft) 100,00 %
30.09.2019 03:22 14,0 C 12,8 C 18,3 C 98 % 1001,9 hPa 0,0 l/m 0 min 0 min 0 W/m 25,7 km/h (4 Bft) 100,00 %
30.09.2019 03:24 13,9 C 12,8 C 18,3 C 98 % 1001,9 hPa 0,2 l/m 0 min 0 min 0 W/m 38,6 km/h (5 Bft) 100,00 %
30.09.2019 03:26 13,9 C 12,8 C 18,3 C 98 % 1001,9 hPa 0,0 l/m 0 min 0 min 0 W/m 29,0 km/h (5 Bft) 100,00 %
30.09.2019 03:28 13,8 C 12,8 C 18,3 C 98 % 1002,0 hPa 0,0 l/m 0 min 0 min 0 W/m 22,5 km/h (4 Bft) 100,00 %
30.09.2019 03:30 13,8 C 12,8 C 18,3 C 98 % 1002,1 hPa 0,0 l/m 0 min 0 min 0 W/m 29,0 km/h (5 Bft) 100,00 %
30.09.2019 03:32 13,8 C 12,8 C 18,3 C 98 % 1002,2 hPa 0,0 l/m 0 min 0 min 0 W/m 22,5 km/h (4 Bft) 95,74 %
30.09.2019 03:34 13,8 C 12,8 C 18,3 C 98 % 1002,3 hPa 0,0 l/m 0 min 0 min 0 W/m 25,7 km/h (4 Bft) 97,87 %
30.09.2019 03:36 13,8 C 12,8 C 18,3 C 98 % 1002,3 hPa 0,0 l/m 0 min 0 min 0 W/m 29,0 km/h (5 Bft) 95,74 %
30.09.2019 03:38 13,7 C 12,8 C 18,3 C 98 % 1002,2 hPa 0,0 l/m 0 min 0 min 0 W/m 22,5 km/h (4 Bft) 95,74 %
30.09.2019 03:40 13,7 C 12,8 C 18,3 C 98 % 1002,3 hPa 0,0 l/m 0 min 0 min 0 W/m 19,3 km/h (3 Bft) 97,87 %
30.09.2019 03:42 13,7 C 12,8 C 18,3 C 98 % 1002,4 hPa 0,0 l/m 0 min 0 min 0 W/m 12,9 km/h (3 Bft) 97,83 %
30.09.2019 03:44 13,7 C 12,2 C 18,3 C 98 % 1002,5 hPa 0,0 l/m 0 min 0 min 0 W/m 16,1 km/h (3 Bft) 97,87 %
30.09.2019 03:46 13,7 C 12,8 C 18,3 C 98 % 1002,6 hPa 0,0 l/m 0 min 0 min 0 W/m 19,3 km/h (3 Bft) 97,87 %
30.09.2019 03:48 13,6 C 12,8 C 18,3 C 98 % 1002,7 hPa 0,0 l/m 0 min 0 min 0 W/m 29,0 km/h (5 Bft) 97,87 %
30.09.2019 03:50 13,7 C 12,2 C 18,3 C 98 % 1002,7 hPa 0,0 l/m 0 min 0 min 0 W/m 12,9 km/h (3 Bft) 97,87 %
30.09.2019 03:52 13,6 C 12,2 C 18,3 C 98 % 1002,7 hPa 0,0 l/m 0 min 0 min 0 W/m 12,9 km/h (3 Bft) 95,74 %
30.09.2019 03:54 13,6 C 12,2 C 18,3 C 98 % 1002,9 hPa 0,0 l/m 0 min 0 min 0 W/m 16,1 km/h (3 Bft) 97,83 %
30.09.2019 03:56 13,6 C 12,2 C 18,3 C 97 % 1002,8 hPa 0,0 l/m 0 min 0 min 0 W/m 19,3 km/h (3 Bft) 97,87 %
30.09.2019 03:58 13,6 C 12,2 C 18,3 C 97 % 1002,9 hPa 0,0 l/m 0 min 0 min 0 W/m 25,7 km/h (4 Bft) 97,87 %
30.09.2019 04:00 13,6 C 12,2 C 18,3 C 97 % 1003,0 hPa 0,0 l/m 0 min 0 min 0 W/m 19,3 km/h (3 Bft) 95,74 %
30.09.2019 04:05 13,5 C 12,2 C 18,3 C 97 % 1003,0 hPa 0,0 l/m 0 min 0 min 0 W/m 16,1 km/h (3 Bft) 96,88 %
30.09.2019 04:06 13,5 C 12,2 C 18,3 C 97 % 1003,0 hPa 0,0 l/m 0 min 0 min 0 W/m 9,7 km/h (2 Bft) 100,00 %
30.09.2019 04:08 13,5 C 12,2 C 18,3 C 97 % 1003,0 hPa 0,0 l/m 0 min 0 min 0 W/m 19,3 km/h (3 Bft) 97,83 %
30.09.2019 04:10 13,5 C 12,2 C 18,3 C 97 % 1003,1 hPa 0,0 l/m 0 min 0 min 0 W/m 22,5 km/h (4 Bft) 95,74 %
30.09.2019 04:12 13,5 C 12,2 C 18,3 C 97 % 1003,2 hPa 0,0 l/m 0 min 2 min 0 W/m 19,3 km/h (3 Bft) 93,88 %
30.09.2019 04:14 13,5 C 12,2 C 18,3 C 97 % 1003,2 hPa 0,0 l/m 0 min 2 min 0 W/m 12,9 km/h (3 Bft) 76,09 %
30.09.2019 04:16 13,5 C 12,2 C 18,3 C 97 % 1003,3 hPa 0,0 l/m 0 min 2 min 0 W/m 12,9 km/h (3 Bft) 72,09 %
30.09.2019 04:18 13,4 C 12,2 C 18,3 C 97 % 1003,3 hPa 0,0 l/m 0 min 2 min 0 W/m 22,5 km/h (4 Bft) 97,87 %
30.09.2019 04:20 13,4 C 12,2 C 18,3 C 97 % 1003,1 hPa 0,0 l/m 0 min 2 min 0 W/m 12,9 km/h (3 Bft) 97,62 %
30.09.2019 04:22 13,4 C 12,2 C 18,3 C 97 % 1003,4 hPa 0,0 l/m 0 min 2 min 0 W/m 16,1 km/h (3 Bft) 95,74 %
30.09.2019 04:24 13,4 C 12,2 C 18,3 C 97 % 1003,4 hPa 0,0 l/m 0 min 2 min 0 W/m 25,7 km/h (4 Bft) 97,87 %
30.09.2019 04:26 13,3 C 12,2 C 18,3 C 97 % 1003,5 hPa 0,0 l/m 0 min 2 min 0 W/m 25,7 km/h (4 Bft) 96,00 %
30.09.2019 04:28 13,3 C 11,7 C 18,3 C 97 % 1003,5 hPa 0,0 l/m 0 min 2 min 0 W/m 25,7 km/h (4 Bft) 95,83 %
30.09.2019 04:30 13,3 C 11,7 C 18,3 C 97 % 1003,5 hPa 0,0 l/m 0 min 0 min 0 W/m 19,3 km/h (3 Bft) 95,74 %
30.09.2019 04:32 13,3 C 12,2 C 18,3 C 96 % 1003,7 hPa 0,0 l/m 0 min 2 min 0 W/m 19,3 km/h (3 Bft) 100,00 %
30.09.2019 04:34 13,2 C 12,2 C 18,3 C 96 % 1003,5 hPa 0,0 l/m 0 min 2 min 0 W/m 32,2 km/h (5 Bft) 96,23 %
30.09.2019 04:36 13,2 C 12,2 C 18,3 C 96 % 1003,7 hPa 0,0 l/m 0 min 2 min 0 W/m 19,3 km/h (3 Bft) 97,83 %
30.09.2019 04:38 13,2 C 12,2 C 18,3 C 96 % 1003,7 hPa 0,0 l/m 0 min 2 min 0 W/m 19,3 km/h (3 Bft) 97,73 %
30.09.2019 04:40 13,2 C 12,2 C 18,3 C 96 % 1003,7 hPa 0,0 l/m 0 min 0 min 0 W/m 12,9 km/h (3 Bft) 98,00 %
30.09.2019 04:42 13,2 C 12,2 C 18,3 C 96 % 1003,7 hPa 0,0 l/m 0 min 0 min 0 W/m 22,5 km/h (4 Bft) 95,65 %
30.09.2019 04:44 13,2 C 12,2 C 18,3 C 96 % 1003,8 hPa 0,0 l/m 0 min 0 min 0 W/m 25,7 km/h (4 Bft) 97,87 %
30.09.2019 04:46 13,2 C 12,2 C 18,3 C 96 % 1003,8 hPa 0,0 l/m 0 min 0 min 0 W/m 16,1 km/h (3 Bft) 93,62 %
30.09.2019 04:48 13,2 C 12,2 C 18,3 C 96 % 1003,9 hPa 0,0 l/m 0 min 0 min 0 W/m 38,6 km/h (5 Bft) 95,74 %
30.09.2019 04:50 13,2 C 12,2 C 18,3 C 96 % 1003,9 hPa 0,0 l/m 0 min 0 min 0 W/m 22,5 km/h (4 Bft) 95,74 %
30.09.2019 04:52 13,2 C 12,2 C 18,3 C 96 % 1004,0 hPa 0,0 l/m 0 min 0 min 0 W/m 19,3 km/h (3 Bft) 95,74 %
30.09.2019 04:54 13,2 C 12,2 C 18,3 C 96 % 1004,0 hPa 0,0 l/m 0 min 0 min 0 W/m 19,3 km/h (3 Bft) 95,35 %
30.09.2019 04:56 13,2 C 12,2 C 18,3 C 96 % 1004,2 hPa 0,0 l/m 0 min 0 min 0 W/m 16,1 km/h (3 Bft) 96,00 %
30.09.2019 04:58 13,2 C 12,2 C 18,3 C 96 % 1004,2 hPa 0,0 l/m 0 min 0 min 0 W/m 16,1 km/h (3 Bft) 97,92 %
30.09.2019 05:00 13,2 C 12,2 C 18,3 C 96 % 1004,1 hPa 0,0 l/m 0 min 0 min 0 W/m 12,9 km/h (3 Bft) 93,48 %
30.09.2019 05:02 13,2 C 12,2 C 18,3 C 96 % 1004,2 hPa 0,0 l/m 0 min 0 min 0 W/m 19,3 km/h (3 Bft) 95,74 %
30.09.2019 05:04 13,2 C 12,2 C 18,3 C 96 % 1004,3 hPa 0,0 l/m 0 min 0 min 0 W/m 19,3 km/h (3 Bft) 95,35 %
30.09.2019 05:06 13,2 C 12,2 C 18,3 C 96 % 1004,3 hPa 0,0 l/m 0 min 0 min 0 W/m 22,5 km/h (4 Bft) 96,00 %
30.09.2019 05:08 13,2 C 12,2 C 18,3 C 96 % 1004,3 hPa 0,0 l/m 0 min 0 min 0 W/m 19,3 km/h (3 Bft) 95,83 %
30.09.2019 05:10 13,2 C 12,2 C 18,3 C 96 % 1004,4 hPa 0,0 l/m 0 min 0 min 0 W/m 35,4 km/h (5 Bft) 95,74 %
30.09.2019 05:12 13,1 C 12,2 C 18,3 C 96 % 1004,4 hPa 0,0 l/m 0 min 0 min 0 W/m 19,3 km/h (3 Bft) 95,65 %
30.09.2019 05:14 13,1 C 11,7 C 18,3 C 96 % 1004,6 hPa 0,0 l/m 0 min 2 min 0 W/m 22,5 km/h (4 Bft) 97,87 %
30.09.2019 05:16 13,1 C 11,7 C 18,3 C 96 % 1004,7 hPa 0,0 l/m 0 min 2 min 0 W/m 19,3 km/h (3 Bft) 97,67 %
30.09.2019 05:18 13,1 C 11,7 C 18,3 C 96 % 1004,6 hPa 0,0 l/m 0 min 0 min 0 W/m 25,7 km/h (4 Bft) 97,87 %
30.09.2019 05:20 13,1 C 11,7 C 18,3 C 96 % 1004,7 hPa 0,0 l/m 0 min 0 min 0 W/m 22,5 km/h (4 Bft) 94,00 %
30.09.2019 05:22 13,1 C 11,7 C 18,3 C 96 % 1004,8 hPa 0,0 l/m 0 min 2 min 0 W/m 19,3 km/h (3 Bft) 95,74 %
30.09.2019 05:24 13,1 C 11,7 C 18,3 C 96 % 1004,8 hPa 0,0 l/m 0 min 0 min 0 W/m 16,1 km/h (3 Bft) 97,87 %
30.09.2019 05:26 13,1 C 11,7 C 18,3 C 96 % 1004,9 hPa 0,0 l/m 0 min 2 min 0 W/m 16,1 km/h (3 Bft) 97,87 %
30.09.2019 05:28 13,1 C 11,7 C 18,3 C 96 % 1004,8 hPa 0,0 l/m 0 min 2 min 0 W/m 19,3 km/h (3 Bft) 95,74 %
30.09.2019 05:30 13,1 C 11,7 C 18,3 C 96 % 1005,0 hPa 0,0 l/m 0 min 2 min 0 W/m 19,3 km/h (3 Bft) 97,87 %
30.09.2019 05:32 13,1 C 11,7 C 18,3 C 96 % 1004,9 hPa 0,0 l/m 0 min 0 min 0 W/m 22,5 km/h (4 Bft) 97,87 %
30.09.2019 05:34 13,1 C 11,7 C 18,3 C 96 % 1004,9 hPa 0,0 l/m 0 min 2 min 0 W/m 22,5 km/h (4 Bft) 97,83 %
30.09.2019 05:36 13,1 C 12,2 C 18,3 C 96 % 1005,0 hPa 0,0 l/m 0 min 0 min 0 W/m 19,3 km/h (3 Bft) 97,87 %
30.09.2019 05:38 13,0 C 12,2 C 18,3 C 96 % 1005,0 hPa 0,0 l/m 0 min 0 min 0 W/m 16,1 km/h (3 Bft) 97,73 %
30.09.2019 05:40 13,0 C 12,2 C 18,3 C 96 % 1004,9 hPa 0,0 l/m 0 min 0 min 0 W/m 12,9 km/h (3 Bft) 97,83 %
30.09.2019 05:42 13,0 C 11,7 C 18,3 C 96 % 1005,0 hPa 0,0 l/m 0 min 2 min 0 W/m 16,1 km/h (3 Bft) 98,00 %
30.09.2019 05:44 13,0 C 12,2 C 18,3 C 96 % 1005,0 hPa 0,0 l/m 0 min 0 min 0 W/m 16,1 km/h (3 Bft) 97,87 %
30.09.2019 05:46 12,9 C 12,2 C 18,3 C 96 % 1005,0 hPa 0,0 l/m 0 min 0 min 0 W/m 19,3 km/h (3 Bft) 97,87 %
30.09.2019 05:48 12,9 C 12,2 C 18,3 C 96 % 1004,9 hPa 0,0 l/m 0 min 0 min 0 W/m 22,5 km/h (4 Bft) 97,87 %
30.09.2019 05:50 12,9 C 12,2 C 18,3 C 96 % 1005,0 hPa 0,0 l/m 0 min 0 min 0 W/m 16,1 km/h (3 Bft) 100,00 %
30.09.2019 05:52 12,9 C 12,2 C 18,3 C 96 % 1005,3 hPa 0,0 l/m 0 min 0 min 0 W/m 29,0 km/h (5 Bft) 100,00 %
30.09.2019 05:54 12,9 C 12,2 C 18,3 C 96 % 1005,2 hPa 0,0 l/m 0 min 0 min 0 W/m 22,5 km/h (4 Bft) 100,00 %
30.09.2019 05:56 12,9 C 11,7 C 18,3 C 96 % 1005,2 hPa 0,0 l/m 0 min 2 min 0 W/m 22,5 km/h (4 Bft) 100,00 %
30.09.2019 05:58 12,9 C 11,7 C 18,3 C 96 % 1005,2 hPa 0,0 l/m 0 min 2 min 0 W/m 16,1 km/h (3 Bft) 100,00 %
30.09.2019 06:00 12,9 C 11,7 C 18,3 C 96 % 1005,2 hPa 0,0 l/m 0 min 2 min 0 W/m 12,9 km/h (3 Bft) 100,00 %
30.09.2019 06:02 12,9 C 11,7 C 18,3 C 96 % 1005,2 hPa 0,0 l/m 0 min 2 min 0 W/m 16,1 km/h (3 Bft) 100,00 %
30.09.2019 06:04 12,9 C 11,7 C 18,3 C 96 % 1005,3 hPa 0,0 l/m 0 min 0 min 0 W/m 12,9 km/h (3 Bft) 100,00 %
30.09.2019 06:08 12,9 C 11,7 C 18,3 C 96 % 1005,3 hPa 0,0 l/m 0 min 4 min 0 W/m 22,5 km/h (4 Bft) 100,00 %
30.09.2019 06:10 12,8 C 11,7 C 18,3 C 95 % 1005,4 hPa 0,0 l/m 0 min 2 min 0 W/m 16,1 km/h (3 Bft) 97,87 %
30.09.2019 06:12 12,8 C 11,7 C 18,3 C 95 % 1005,6 hPa 0,0 l/m 0 min 2 min 0 W/m 29,0 km/h (5 Bft) 95,74 %
30.09.2019 06:14 12,8 C 11,1 C 18,3 C 95 % 1005,5 hPa 0,0 l/m 0 min 2 min 0 W/m 25,7 km/h (4 Bft) 97,87 %
30.09.2019 06:16 12,8 C 11,1 C 18,3 C 95 % 1005,5 hPa 0,0 l/m 0 min 2 min 0 W/m 19,3 km/h (3 Bft) 98,08 %
30.09.2019 06:18 12,8 C 11,1 C 18,3 C 95 % 1005,6 hPa 0,0 l/m 0 min 0 min 0 W/m 16,1 km/h (3 Bft) 97,78 %
30.09.2019 06:20 12,8 C 11,1 C 18,3 C 95 % 1005,6 hPa 0,0 l/m 0 min 0 min 0 W/m 16,1 km/h (3 Bft) 97,14 %
30.09.2019 06:22 12,8 C 11,1 C 18,3 C 95 % 1005,7 hPa 0,0 l/m 0 min 0 min 0 W/m 29,0 km/h (5 Bft) 98,18 %
30.09.2019 06:24 12,8 C 11,7 C 18,3 C 95 % 1005,7 hPa 0,0 l/m 0 min 0 min 0 W/m 22,5 km/h (4 Bft) 97,96 %
30.09.2019 06:26 12,8 C 11,7 C 18,3 C 95 % 1005,7 hPa 0,0 l/m 0 min 0 min 0 W/m 12,9 km/h (3 Bft) 95,83 %
30.09.2019 06:28 12,7 C 11,7 C 18,3 C 96 % 1005,8 hPa 0,0 l/m 0 min 0 min 0 W/m 25,7 km/h (4 Bft) 95,74 %
30.09.2019 06:30 12,7 C 11,7 C 18,3 C 96 % 1005,9 hPa 0,0 l/m 0 min 0 min 0 W/m 16,1 km/h (3 Bft) 97,87 %
30.09.2019 06:32 12,7 C 11,7 C 18,3 C 96 % 1005,9 hPa 0,0 l/m 0 min 0 min 0 W/m 22,5 km/h (4 Bft) 97,83 %
30.09.2019 06:34 12,7 C 11,7 C 18,3 C 96 % 1005,9 hPa 0,0 l/m 0 min 0 min 0 W/m 19,3 km/h (3 Bft) 97,87 %
30.09.2019 06:36 12,7 C 11,7 C 18,3 C 96 % 1006,0 hPa 0,0 l/m 0 min 0 min 0 W/m 12,9 km/h (3 Bft) 97,87 %
30.09.2019 06:38 12,7 C 11,7 C 18,3 C 96 % 1005,9 hPa 0,0 l/m 0 min 0 min 0 W/m 19,3 km/h (3 Bft) 97,87 %
30.09.2019 06:40 12,7 C 11,7 C 18,3 C 96 % 1005,9 hPa 0,0 l/m 0 min 0 min 0 W/m 16,1 km/h (3 Bft) 97,87 %
30.09.2019 06:42 12,7 C 11,7 C 18,3 C 96 % 1006,0 hPa 0,0 l/m 0 min 0 min 0 W/m 12,9 km/h (3 Bft) 97,87 %
30.09.2019 06:44 12,7 C 11,7 C 18,3 C 96 % 1006,1 hPa 0,0 l/m 0 min 0 min 0 W/m 29,0 km/h (5 Bft) 95,65 %
30.09.2019 06:46 12,7 C 11,7 C 18,3 C 96 % 1006,1 hPa 0,0 l/m 0 min 0 min 0 W/m 22,5 km/h (4 Bft) 97,87 %
30.09.2019 06:48 12,7 C 11,7 C 18,3 C 96 % 1006,2 hPa 0,0 l/m 0 min 0 min 0 W/m 19,3 km/h (3 Bft) 97,87 %
30.09.2019 06:50 12,7 C 11,7 C 18,3 C 96 % 1006,2 hPa 0,0 l/m 0 min 0 min 0 W/m 16,1 km/h (3 Bft) 97,87 %
30.09.2019 06:52 12,7 C 11,7 C 18,3 C 96 % 1006,1 hPa 0,0 l/m 0 min 0 min 0 W/m 16,1 km/h (3 Bft) 97,87 %
30.09.2019 06:54 12,7 C 11,7 C 18,3 C 96 % 1006,3 hPa 0,0 l/m 0 min 0 min 0 W/m 25,7 km/h (4 Bft) 95,74 %
30.09.2019 06:56 12,7 C 11,7 C 18,3 C 96 % 1006,3 hPa 0,0 l/m 0 min 0 min 0 W/m 12,9 km/h (3 Bft) 100,00 %
30.09.2019 06:58 12,7 C 11,7 C 18,3 C 96 % 1006,4 hPa 0,0 l/m 0 min 2 min 0 W/m 16,1 km/h (3 Bft) 97,87 %
30.09.2019 07:00 12,7 C 11,7 C 18,3 C 96 % 1006,4 hPa 0,0 l/m 0 min 2 min 0 W/m 25,7 km/h (4 Bft) 100,00 %
30.09.2019 07:02 12,7 C 11,1 C 18,3 C 96 % 1006,5 hPa 0,0 l/m 0 min 2 min 0 W/m 19,3 km/h (3 Bft) 100,00 %
30.09.2019 07:04 12,7 C 11,1 C 18,3 C 96 % 1006,4 hPa 0,0 l/m 0 min 2 min 0 W/m 16,1 km/h (3 Bft) 97,87 %
30.09.2019 07:06 12,7 C 11,1 C 18,3 C 96 % 1006,5 hPa 0,0 l/m 0 min 0 min 0 W/m 12,9 km/h (3 Bft) 97,87 %
30.09.2019 07:08 12,7 C 11,1 C 18,3 C 96 % 1006,5 hPa 0,2 l/m 0 min 0 min 0 W/m 12,9 km/h (3 Bft) 100,00 %
30.09.2019 07:10 12,7 C 11,1 C 18,3 C 96 % 1006,6 hPa 0,0 l/m 0 min 0 min 0 W/m 25,7 km/h (4 Bft) 100,00 %
30.09.2019 07:12 12,7 C 11,1 C 18,3 C 96 % 1006,6 hPa 0,0 l/m 0 min 0 min 0 W/m 16,1 km/h (3 Bft) 100,00 %
30.09.2019 07:14 12,6 C 11,1 C 18,3 C 96 % 1006,6 hPa 0,0 l/m 0 min 0 min 0 W/m 22,5 km/h (4 Bft) 100,00 %
30.09.2019 07:16 12,6 C 11,1 C 18,3 C 96 % 1006,6 hPa 0,0 l/m 0 min 0 min 0 W/m 16,1 km/h (3 Bft) 100,00 %
30.09.2019 07:18 12,6 C 11,1 C 18,3 C 96 % 1006,7 hPa 0,0 l/m 0 min 0 min 0 W/m 12,9 km/h (3 Bft) 100,00 %
30.09.2019 07:20 12,6 C 11,1 C 18,3 C 96 % 1006,6 hPa 0,0 l/m 0 min 0 min 0 W/m 19,3 km/h (3 Bft) 100,00 %
30.09.2019 07:22 12,6 C 11,1 C 18,3 C 96 % 1006,7 hPa 0,0 l/m 0 min 0 min 0 W/m 25,7 km/h (4 Bft) 100,00 %
30.09.2019 07:24 12,6 C 11,1 C 18,3 C 96 % 1006,7 hPa 0,0 l/m 0 min 0 min 0 W/m 25,7 km/h (4 Bft) 100,00 %
30.09.2019 07:26 12,6 C 11,1 C 18,3 C 96 % 1006,8 hPa 0,0 l/m 0 min 0 min 0 W/m 19,3 km/h (3 Bft) 100,00 %
30.09.2019 07:28 12,6 C 11,7 C 18,3 C 96 % 1006,9 hPa 0,0 l/m 0 min 0 min 0 W/m 29,0 km/h (5 Bft) 100,00 %
30.09.2019 07:30 12,5 C 11,7 C 18,3 C 96 % 1007,0 hPa 0,0 l/m 0 min 0 min 0 W/m 25,7 km/h (4 Bft) 100,00 %
30.09.2019 07:32 12,6 C 11,7 C 18,3 C 96 % 1007,0 hPa 0,0 l/m 0 min 0 min 0 W/m 19,3 km/h (3 Bft) 100,00 %
30.09.2019 07:34 12,6 C 11,7 C 18,3 C 96 % 1007,1 hPa 0,0 l/m 0 min 0 min 0 W/m 22,5 km/h (4 Bft) 100,00 %
30.09.2019 07:36 12,6 C 11,7 C 18,3 C 96 % 1007,0 hPa 0,0 l/m 0 min 0 min 0 W/m 16,1 km/h (3 Bft) 100,00 %
30.09.2019 07:38 12,6 C 11,7 C 18,3 C 96 % 1007,2 hPa 0,0 l/m 0 min 0 min 0 W/m 16,1 km/h (3 Bft) 95,74 %
30.09.2019 07:40 12,6 C 11,7 C 18,3 C 96 % 1007,2 hPa 0,0 l/m 0 min 0 min 2 W/m 16,1 km/h (3 Bft) 95,74 %
30.09.2019 07:42 12,6 C 11,7 C 18,3 C 96 % 1007,4 hPa 0,0 l/m 0 min 0 min 5 W/m 22,5 km/h (4 Bft) 97,83 %
30.09.2019 07:44 12,6 C 11,7 C 18,3 C 96 % 1007,4 hPa 0,0 l/m 0 min 0 min 7 W/m 12,9 km/h (3 Bft) 97,87 %
30.09.2019 07:46 12,6 C 11,7 C 18,3 C 96 % 1007,5 hPa 0,0 l/m 0 min 2 min 9 W/m 19,3 km/h (3 Bft) 97,87 %
30.09.2019 07:48 12,6 C 11,1 C 18,3 C 96 % 1007,6 hPa 0,0 l/m 0 min 2 min 8 W/m 19,3 km/h (3 Bft) 97,87 %
30.09.2019 07:50 12,6 C 11,1 C 18,3 C 96 % 1007,5 hPa 0,0 l/m 0 min 2 min 10 W/m 16,1 km/h (3 Bft) 95,74 %
30.09.2019 07:52 12,6 C 11,1 C 18,3 C 96 % 1007,6 hPa 0,0 l/m 0 min 2 min 18 W/m 19,3 km/h (3 Bft) 97,87 %
30.09.2019 07:54 12,6 C 11,1 C 18,3 C 96 % 1007,7 hPa 0,0 l/m 0 min 2 min 21 W/m 12,9 km/h (3 Bft) 93,48 %
30.09.2019 07:56 12,6 C 11,1 C 18,3 C 96 % 1007,7 hPa 0,2 l/m 0 min 2 min 18 W/m 16,1 km/h (3 Bft) 97,87 %
30.09.2019 07:58 12,6 C 11,1 C 18,3 C 96 % 1007,8 hPa 0,0 l/m 0 min 2 min 16 W/m 12,9 km/h (3 Bft) 91,49 %
30.09.2019 08:00 12,6 C 11,1 C 18,3 C 96 % 1007,8 hPa 0,0 l/m 0 min 2 min 12 W/m 16,1 km/h (3 Bft) 95,74 %
30.09.2019 08:02 12,6 C 11,1 C 18,3 C 96 % 1007,9 hPa 0,0 l/m 0 min 2 min 9 W/m 19,3 km/h (3 Bft) 95,74 %
30.09.2019 08:04 12,6 C 11,1 C 18,3 C 96 % 1008,0 hPa 0,0 l/m 0 min 2 min 6 W/m 9,7 km/h (2 Bft) 91,49 %
30.09.2019 08:06 12,6 C 11,1 C 18,3 C 96 % 1008,1 hPa 0,0 l/m 0 min 2 min 5 W/m 12,9 km/h (3 Bft) 95,65 %
30.09.2019 08:08 12,6 C 11,1 C 18,3 C 97 % 1008,1 hPa 0,0 l/m 0 min 0 min 8 W/m 22,5 km/h (4 Bft) 97,22 %
30.09.2019 08:10 12,6 C 11,7 C 18,3 C 97 % 1008,2 hPa 0,0 l/m 0 min 0 min 14 W/m 16,1 km/h (3 Bft) 95,65 %
30.09.2019 08:12 12,6 C 11,7 C 18,3 C 97 % 1008,2 hPa 0,0 l/m 0 min 2 min 16 W/m 12,9 km/h (3 Bft) 93,62 %
30.09.2019 08:14 12,6 C 11,1 C 18,3 C 97 % 1008,3 hPa 0,2 l/m 0 min 2 min 19 W/m 16,1 km/h (3 Bft) 95,74 %
30.09.2019 08:16 12,6 C 11,1 C 18,3 C 97 % 1008,3 hPa 0,0 l/m 0 min 2 min 23 W/m 22,5 km/h (4 Bft) 95,74 %
30.09.2019 08:18 12,6 C 11,1 C 18,3 C 97 % 1008,4 hPa 0,2 l/m 0 min 2 min 20 W/m 12,9 km/h (3 Bft) 95,74 %
30.09.2019 08:20 12,6 C 11,1 C 18,3 C 97 % 1008,4 hPa 0,0 l/m 0 min 2 min 17 W/m 16,1 km/h (3 Bft) 97,87 %
30.09.2019 08:22 12,6 C 11,1 C 18,3 C 97 % 1008,4 hPa 0,2 l/m 0 min 2 min 14 W/m 16,1 km/h (3 Bft) 93,48 %
30.09.2019 08:24 12,6 C 11,1 C 18,3 C 97 % 1008,5 hPa 0,0 l/m 0 min 2 min 12 W/m 12,9 km/h (3 Bft) 95,74 %
30.09.2019 08:26 12,6 C 11,1 C 18,3 C 97 % 1008,6 hPa 0,2 l/m 0 min 2 min 11 W/m 12,9 km/h (3 Bft) 95,74 %
30.09.2019 08:28 12,6 C 11,1 C 18,3 C 97 % 1008,6 hPa 0,2 l/m 0 min 2 min 12 W/m 12,9 km/h (3 Bft) 93,62 %
30.09.2019 08:30 12,6 C 11,1 C 18,3 C 97 % 1008,7 hPa 0,0 l/m 0 min 2 min 16 W/m 9,7 km/h (2 Bft) 95,74 %
30.09.2019 08:32 12,5 C 11,1 C 18,3 C 97 % 1008,7 hPa 0,0 l/m 0 min 2 min 22 W/m 12,9 km/h (3 Bft) 95,65 %
30.09.2019 08:34 12,5 C 11,1 C 18,3 C 97 % 1008,7 hPa 0,0 l/m 0 min 2 min 23 W/m 12,9 km/h (3 Bft) 91,49 %
30.09.2019 08:36 12,5 C 11,1 C 18,3 C 97 % 1008,7 hPa 0,2 l/m 0 min 2 min 18 W/m 12,9 km/h (3 Bft) 97,87 %
30.09.2019 08:38 12,5 C 11,1 C 18,3 C 97 % 1008,7 hPa 0,2 l/m 0 min 2 min 12 W/m 12,9 km/h (3 Bft) 96,23 %
30.09.2019 08:40 12,5 C 11,1 C 18,3 C 97 % 1008,8 hPa 0,0 l/m 0 min 2 min 10 W/m 9,7 km/h (2 Bft) 95,74 %
30.09.2019 08:42 12,5 C 11,1 C 18,3 C 97 % 1008,8 hPa 0,0 l/m 0 min 2 min 11 W/m 6,4 km/h (2 Bft) 95,74 %
30.09.2019 08:44 12,5 C 11,1 C 18,3 C 97 % 1008,8 hPa 0,2 l/m 0 min 2 min 13 W/m 6,4 km/h (2 Bft) 95,74 %
30.09.2019 08:46 12,4 C 11,1 C 18,3 C 97 % 1008,8 hPa 0,0 l/m 0 min 2 min 13 W/m 12,9 km/h (3 Bft) 95,65 %
30.09.2019 08:48 12,4 C 11,1 C 18,3 C 97 % 1008,7 hPa 0,0 l/m 0 min 0 min 10 W/m 12,9 km/h (3 Bft) 93,62 %
30.09.2019 08:50 12,4 C 11,1 C 18,3 C 97 % 1008,9 hPa 0,0 l/m 0 min 0 min 7 W/m 9,7 km/h (2 Bft) 95,74 %
30.09.2019 08:52 12,4 C 11,1 C 18,3 C 97 % 1008,9 hPa 0,0 l/m 0 min 0 min 9 W/m 6,4 km/h (2 Bft) 93,62 %
30.09.2019 08:54 12,4 C 11,1 C 18,3 C 97 % 1008,9 hPa 0,0 l/m 0 min 0 min 15 W/m 12,9 km/h (3 Bft) 97,87 %
30.09.2019 08:56 12,4 C 11,1 C 18,3 C 97 % 1009,0 hPa 0,0 l/m 0 min 0 min 19 W/m 19,3 km/h (3 Bft) 95,74 %
30.09.2019 08:58 12,4 C 11,7 C 18,3 C 97 % 1008,9 hPa 0,0 l/m 0 min 0 min 23 W/m 12,9 km/h (3 Bft) 97,83 %
30.09.2019 09:00 12,4 C 11,7 C 18,3 C 97 % 1009,0 hPa 0,0 l/m 0 min 0 min 29 W/m 16,1 km/h (3 Bft) 97,87 %
30.09.2019 09:02 12,4 C 11,7 C 18,3 C 97 % 1008,9 hPa 0,0 l/m 0 min 0 min 43 W/m 9,7 km/h (2 Bft) 93,62 %
30.09.2019 09:04 12,4 C 11,7 C 18,3 C 97 % 1009,0 hPa 0,0 l/m 0 min 0 min 44 W/m 19,3 km/h (3 Bft) 97,87 %
30.09.2019 09:06 12,4 C 11,7 C 18,3 C 97 % 1009,1 hPa 0,0 l/m 0 min 0 min 38 W/m 12,9 km/h (3 Bft) 95,74 %
30.09.2019 09:08 12,4 C 11,7 C 18,3 C 97 % 1009,3 hPa 0,0 l/m 0 min 0 min 43 W/m 19,3 km/h (3 Bft) 89,80 %
30.09.2019 09:10 12,4 C 11,7 C 18,3 C 97 % 1009,2 hPa 0,0 l/m 0 min 0 min 39 W/m 12,9 km/h (3 Bft) 97,87 %
30.09.2019 09:12 12,5 C 11,7 C 18,3 C 97 % 1009,2 hPa 0,0 l/m 0 min 0 min 31 W/m 12,9 km/h (3 Bft) 97,87 %
30.09.2019 09:14 12,5 C 11,7 C 18,3 C 97 % 1009,2 hPa 0,0 l/m 0 min 0 min 23 W/m 12,9 km/h (3 Bft) 97,87 %
30.09.2019 09:16 12,4 C 11,7 C 18,3 C 97 % 1009,3 hPa 0,0 l/m 0 min 0 min 26 W/m 16,1 km/h (3 Bft) 97,87 %
30.09.2019 09:18 12,5 C 11,7 C 18,3 C 97 % 1009,3 hPa 0,0 l/m 0 min 0 min 42 W/m 16,1 km/h (3 Bft) 95,74 %
30.09.2019 09:20 12,5 C 11,7 C 18,3 C 97 % 1009,5 hPa 0,0 l/m 0 min 0 min 45 W/m 22,5 km/h (4 Bft) 97,83 %
30.09.2019 09:22 12,5 C 11,7 C 18,3 C 97 % 1009,4 hPa 0,0 l/m 0 min 0 min 52 W/m 12,9 km/h (3 Bft) 95,74 %
30.09.2019 09:24 12,5 C 11,7 C 18,3 C 97 % 1009,4 hPa 0,0 l/m 0 min 0 min 53 W/m 16,1 km/h (3 Bft) 97,87 %
30.09.2019 09:26 12,6 C 11,7 C 18,3 C 97 % 1009,4 hPa 0,0 l/m 0 min 2 min 29 W/m 12,9 km/h (3 Bft) 97,87 %
30.09.2019 09:28 12,6 C 11,7 C 18,3 C 97 % 1009,5 hPa 0,2 l/m 0 min 2 min 17 W/m 19,3 km/h (3 Bft) 97,87 %
30.09.2019 09:30 12,6 C 11,1 C 18,3 C 97 % 1009,6 hPa 0,0 l/m 0 min 2 min 18 W/m 16,1 km/h (3 Bft) 97,87 %
30.09.2019 09:32 12,6 C 11,1 C 18,3 C 97 % 1009,5 hPa 0,0 l/m 0 min 2 min 22 W/m 12,9 km/h (3 Bft) 100,00 %
30.09.2019 09:34 12,6 C 11,1 C 18,3 C 97 % 1009,6 hPa 0,0 l/m 0 min 0 min 32 W/m 9,7 km/h (2 Bft) 100,00 %
30.09.2019 09:36 12,6 C 11,1 C 18,3 C 97 % 1009,6 hPa 0,0 l/m 0 min 0 min 38 W/m 9,7 km/h (2 Bft) 100,00 %
30.09.2019 09:38 12,6 C 11,7 C 18,3 C 97 % 1009,6 hPa 0,0 l/m 0 min 0 min 31 W/m 9,7 km/h (2 Bft) 97,96 %
30.09.2019 09:40 12,6 C 11,7 C 18,3 C 97 % 1009,7 hPa 0,0 l/m 0 min 0 min 27 W/m 6,4 km/h (2 Bft) 100,00 %
30.09.2019 09:42 12,6 C 11,7 C 18,3 C 97 % 1009,7 hPa 0,0 l/m 0 min 2 min 25 W/m 19,3 km/h (3 Bft) 97,87 %
30.09.2019 09:44 12,6 C 11,7 C 18,3 C 97 % 1009,7 hPa 0,0 l/m 0 min 0 min 25 W/m 16,1 km/h (3 Bft) 100,00 %
30.09.2019 09:46 12,6 C 11,7 C 18,3 C 97 % 1009,7 hPa 0,0 l/m 0 min 2 min 28 W/m 16,1 km/h (3 Bft) 100,00 %
30.09.2019 09:48 12,6 C 11,7 C 18,3 C 97 % 1009,9 hPa 0,0 l/m 0 min 0 min 34 W/m 16,1 km/h (3 Bft) 100,00 %
30.09.2019 09:50 12,6 C 11,7 C 18,3 C 97 % 1009,9 hPa 0,0 l/m 0 min 0 min 29 W/m 12,9 km/h (3 Bft) 100,00 %
30.09.2019 09:52 12,6 C 11,7 C 18,3 C 97 % 1010,0 hPa 0,0 l/m 0 min 0 min 46 W/m 16,1 km/h (3 Bft) 97,87 %
30.09.2019 09:54 12,6 C 11,7 C 18,3 C 97 % 1009,9 hPa 0,0 l/m 0 min 0 min 50 W/m 16,1 km/h (3 Bft) 100,00 %
30.09.2019 09:56 12,6 C 11,7 C 18,3 C 97 % 1010,0 hPa 0,0 l/m 0 min 0 min 66 W/m 19,3 km/h (3 Bft) 100,00 %
30.09.2019 09:58 12,6 C 11,7 C 18,3 C 97 % 1009,9 hPa 0,0 l/m 0 min 0 min 80 W/m 16,1 km/h (3 Bft) 100,00 %
30.09.2019 10:00 12,6 C 12,2 C 18,3 C 97 % 1010,0 hPa 0,0 l/m 0 min 0 min 113 W/m 16,1 km/h (3 Bft) 100,00 %
30.09.2019 10:02 12,7 C 12,2 C 18,3 C 97 % 1010,1 hPa 0,0 l/m 0 min 0 min 114 W/m 22,5 km/h (4 Bft) 95,65 %
30.09.2019 10:04 12,7 C 12,2 C 18,3 C 97 % 1010,2 hPa 0,0 l/m 0 min 0 min 121 W/m 19,3 km/h (3 Bft) 100,00 %
30.09.2019 10:06 12,8 C 12,2 C 18,3 C 97 % 1010,2 hPa 0,0 l/m 0 min 0 min 90 W/m 12,9 km/h (3 Bft) 97,87 %
30.09.2019 10:08 12,8 C 12,2 C 18,3 C 97 % 1010,2 hPa 0,0 l/m 0 min 0 min 81 W/m 9,7 km/h (2 Bft) 85,11 %
30.09.2019 10:10 12,9 C 12,2 C 18,3 C 97 % 1010,2 hPa 0,0 l/m 0 min 0 min 102 W/m 12,9 km/h (3 Bft) 69,77 %
30.09.2019 10:12 12,9 C 12,8 C 18,3 C 97 % 1010,2 hPa 0,0 l/m 0 min 0 min 173 W/m 22,5 km/h (4 Bft) 100,00 %
30.09.2019 10:14 12,9 C 13,3 C 18,3 C 97 % 1010,2 hPa 0,0 l/m 2 min 0 min 190 W/m 19,3 km/h (3 Bft) 100,00 %
30.09.2019 10:16 13,0 C 13,3 C 18,3 C 97 % 1010,2 hPa 0,0 l/m 2 min 0 min 202 W/m 12,9 km/h (3 Bft) 100,00 %
30.09.2019 10:18 13,1 C 13,3 C 18,3 C 97 % 1010,3 hPa 0,0 l/m 2 min 0 min 225 W/m 12,9 km/h (3 Bft) 100,00 %
30.09.2019 10:20 13,2 C 13,9 C 18,3 C 97 % 1010,3 hPa 0,0 l/m 2 min 0 min 240 W/m 25,7 km/h (4 Bft) 100,00 %
30.09.2019 10:22 13,2 C 13,9 C 18,3 C 97 % 1010,3 hPa 0,0 l/m 2 min 0 min 210 W/m 25,7 km/h (4 Bft) 100,00 %
30.09.2019 10:24 13,3 C 14,4 C 18,3 C 97 % 1010,3 hPa 0,0 l/m 2 min 0 min 230 W/m 12,9 km/h (3 Bft) 100,00 %
30.09.2019 10:26 13,4 C 14,4 C 18,3 C 97 % 1010,2 hPa 0,0 l/m 2 min 0 min 214 W/m 19,3 km/h (3 Bft) 100,00 %
30.09.2019 10:28 13,4 C 13,9 C 18,3 C 97 % 1010,4 hPa 0,0 l/m 0 min 0 min 165 W/m 35,4 km/h (5 Bft) 100,00 %
30.09.2019 10:30 13,5 C 13,9 C 18,3 C 96 % 1010,5 hPa 0,0 l/m 2 min 0 min 213 W/m 16,1 km/h (3 Bft) 100,00 %
30.09.2019 10:32 13,6 C 13,9 C 18,3 C 96 % 1010,4 hPa 0,0 l/m 0 min 0 min 151 W/m 12,9 km/h (3 Bft) 100,00 %
30.09.2019 10:34 13,6 C 13,3 C 18,3 C 96 % 1010,5 hPa 0,0 l/m 0 min 0 min 140 W/m 9,7 km/h (2 Bft) 100,00 %
30.09.2019 10:36 13,6 C 13,9 C 18,3 C 96 % 1010,5 hPa 0,0 l/m 0 min 0 min 144 W/m 16,1 km/h (3 Bft) 100,00 %
30.09.2019 10:38 13,7 C 15,0 C 18,3 C 95 % 1010,5 hPa 0,0 l/m 0 min 0 min 144 W/m 19,3 km/h (3 Bft) 100,00 %
30.09.2019 10:40 13,8 C 14,4 C 18,3 C 95 % 1010,5 hPa 0,0 l/m 0 min 0 min 155 W/m 16,1 km/h (3 Bft) 100,00 %
30.09.2019 10:42 13,8 C 15,0 C 18,3 C 95 % 1010,5 hPa 0,0 l/m 0 min 0 min 203 W/m 22,5 km/h (4 Bft) 95,74 %
30.09.2019 10:44 13,9 C 15,6 C 18,3 C 95 % 1010,5 hPa 0,0 l/m 2 min 0 min 280 W/m 12,9 km/h (3 Bft) 100,00 %
30.09.2019 10:46 14,1 C 15,6 C 18,3 C 95 % 1010,5 hPa 0,0 l/m 2 min 0 min 246 W/m 16,1 km/h (3 Bft) 95,74 %
30.09.2019 10:48 14,2 C 15,6 C 18,3 C 94 % 1010,7 hPa 0,0 l/m 2 min 0 min 224 W/m 16,1 km/h (3 Bft) 97,83 %
30.09.2019 10:50 14,2 C 15,6 C 18,3 C 94 % 1010,6 hPa 0,0 l/m 0 min 0 min 214 W/m 12,9 km/h (3 Bft) 97,87 %
30.09.2019 10:52 14,2 C 15,0 C 18,3 C 94 % 1010,7 hPa 0,0 l/m 0 min 0 min 172 W/m 16,1 km/h (3 Bft) 95,74 %
30.09.2019 10:54 14,2 C 14,4 C 18,3 C 93 % 1010,7 hPa 0,0 l/m 0 min 0 min 109 W/m 12,9 km/h (3 Bft) 95,74 %
30.09.2019 10:56 14,2 C 14,4 C 18,3 C 92 % 1010,7 hPa 0,0 l/m 0 min 0 min 146 W/m 16,1 km/h (3 Bft) 95,74 %
30.09.2019 10:58 14,2 C 15,0 C 18,3 C 92 % 1010,7 hPa 0,0 l/m 0 min 0 min 171 W/m 9,7 km/h (2 Bft) 97,87 %
30.09.2019 11:00 14,2 C 15,6 C 18,3 C 92 % 1010,8 hPa 0,0 l/m 2 min 0 min 247 W/m 16,1 km/h (3 Bft) 97,83 %
30.09.2019 11:02 14,3 C 15,6 C 18,3 C 92 % 1010,7 hPa 0,0 l/m 2 min 0 min 320 W/m 12,9 km/h (3 Bft) 95,74 %
30.09.2019 11:04 14,3 C 15,0 C 18,3 C 92 % 1010,9 hPa 0,0 l/m 0 min 0 min 203 W/m 12,9 km/h (3 Bft) 95,74 %
30.09.2019 11:06 14,3 C 15,0 C 18,3 C 92 % 1010,8 hPa 0,0 l/m 0 min 0 min 187 W/m 12,9 km/h (3 Bft) 94,29 %
30.09.2019 11:08 14,4 C 15,0 C 18,3 C 92 % 1010,9 hPa 0,0 l/m 0 min 0 min 197 W/m 12,9 km/h (3 Bft) 98,31 %
30.09.2019 11:10 14,4 C 15,6 C 18,3 C 92 % 1010,9 hPa 0,0 l/m 0 min 0 min 209 W/m 19,3 km/h (3 Bft) 95,74 %
30.09.2019 11:12 14,5 C 16,1 C 18,3 C 92 % 1010,9 hPa 0,0 l/m 2 min 0 min 300 W/m 16,1 km/h (3 Bft) 95,65 %
30.09.2019 11:14 14,6 C 16,1 C 18,3 C 91 % 1011,0 hPa 0,0 l/m 0 min 0 min 229 W/m 12,9 km/h (3 Bft) 91,49 %
30.09.2019 11:16 14,6 C 16,1 C 18,3 C 91 % 1011,1 hPa 0,0 l/m 2 min 0 min 292 W/m 19,3 km/h (3 Bft) 93,75 %
30.09.2019 11:18 14,6 C 15,6 C 18,3 C 91 % 1011,0 hPa 0,0 l/m 0 min 0 min 203 W/m 19,3 km/h (3 Bft) 95,74 %
30.09.2019 11:20 14,7 C 15,0 C 18,3 C 91 % 1011,1 hPa 0,0 l/m 0 min 0 min 133 W/m 22,5 km/h (4 Bft) 91,49 %
30.09.2019 11:22 14,6 C 15,0 C 18,3 C 90 % 1011,2 hPa 0,0 l/m 0 min 0 min 122 W/m 25,7 km/h (4 Bft) 89,36 %
30.09.2019 11:24 14,6 C 14,4 C 18,3 C 90 % 1011,2 hPa 0,0 l/m 0 min 0 min 129 W/m 16,1 km/h (3 Bft) 93,62 %
30.09.2019 11:26 14,6 C 16,1 C 18,3 C 89 % 1011,2 hPa 0,0 l/m 0 min 0 min 191 W/m 19,3 km/h (3 Bft) 93,62 %
30.09.2019 11:28 14,7 C 17,8 C 18,3 C 89 % 1011,3 hPa 0,0 l/m 2 min 0 min 635 W/m 16,1 km/h (3 Bft) 93,48 %
30.09.2019 11:30 14,8 C 17,8 C 18,3 C 90 % 1011,3 hPa 0,0 l/m 2 min 0 min 449 W/m 16,1 km/h (3 Bft) 93,62 %
30.09.2019 11:32 14,8 C 16,7 C 18,3 C 90 % 1011,3 hPa 0,0 l/m 2 min 0 min 316 W/m 12,9 km/h (3 Bft) 93,62 %
30.09.2019 11:34 14,9 C 17,8 C 18,3 C 89 % 1011,3 hPa 0,0 l/m 2 min 0 min 266 W/m 12,9 km/h (3 Bft) 93,62 %
30.09.2019 11:36 15,0 C 16,7 C 18,3 C 89 % 1011,4 hPa 0,0 l/m 2 min 0 min 265 W/m 22,5 km/h (4 Bft) 95,74 %
30.09.2019 11:38 15,0 C 16,1 C 18,3 C 89 % 1011,3 hPa 0,0 l/m 0 min 0 min 217 W/m 16,1 km/h (3 Bft) 91,67 %
30.09.2019 11:40 15,0 C 15,6 C 18,3 C 88 % 1011,4 hPa 0,0 l/m 0 min 0 min 232 W/m 16,1 km/h (3 Bft) 95,74 %
30.09.2019 11:42 15,1 C 15,6 C 18,3 C 88 % 1011,5 hPa 0,0 l/m 0 min 0 min 182 W/m 22,5 km/h (4 Bft) 95,74 %
30.09.2019 11:44 15,1 C 15,6 C 18,3 C 88 % 1011,4 hPa 0,0 l/m 0 min 0 min 177 W/m 9,7 km/h (2 Bft) 93,62 %
30.09.2019 11:46 15,1 C 15,6 C 18,3 C 88 % 1011,5 hPa 0,0 l/m 0 min 0 min 203 W/m 16,1 km/h (3 Bft) 95,74 %
30.09.2019 11:48 15,1 C 16,1 C 18,3 C 88 % 1011,5 hPa 0,0 l/m 0 min 0 min 218 W/m 12,9 km/h (3 Bft) 93,48 %
30.09.2019 11:50 15,1 C 16,7 C 18,3 C 88 % 1011,6 hPa 0,0 l/m 2 min 0 min 302 W/m 16,1 km/h (3 Bft) 95,74 %
30.09.2019 11:52 15,2 C 17,2 C 18,3 C 88 % 1011,6 hPa 0,0 l/m 2 min 0 min 292 W/m 9,7 km/h (2 Bft) 95,74 %
30.09.2019 11:54 15,2 C 16,7 C 18,3 C 88 % 1011,5 hPa 0,0 l/m 0 min 0 min 208 W/m 22,5 km/h (4 Bft) 95,74 %
30.09.2019 11:56 15,2 C 17,2 C 18,3 C 88 % 1011,6 hPa 0,0 l/m 2 min 0 min 304 W/m 12,9 km/h (3 Bft) 97,87 %
30.09.2019 11:58 15,2 C 16,7 C 18,3 C 87 % 1011,6 hPa 0,0 l/m 2 min 0 min 333 W/m 22,5 km/h (4 Bft) 95,74 %
30.09.2019 12:00 15,3 C 16,1 C 18,3 C 87 % 1011,6 hPa 0,0 l/m 0 min 0 min 236 W/m 19,3 km/h (3 Bft) 97,83 %
30.09.2019 12:02 15,3 C 16,1 C 18,3 C 87 % 1011,7 hPa 0,0 l/m 0 min 0 min 210 W/m 12,9 km/h (3 Bft) 96,08 %
30.09.2019 12:04 15,3 C 16,1 C 18,3 C 87 % 1011,6 hPa 0,0 l/m 0 min 0 min 229 W/m 12,9 km/h (3 Bft) 97,78 %
30.09.2019 12:08 15,4 C 16,7 C 18,3 C 87 % 1011,8 hPa 0,0 l/m 4 min 0 min 275 W/m 12,9 km/h (3 Bft) 97,87 %
30.09.2019 12:10 15,4 C 16,1 C 18,3 C 87 % 1011,8 hPa 0,0 l/m 0 min 0 min 178 W/m 12,9 km/h (3 Bft) 97,87 %
30.09.2019 12:12 15,4 C 16,1 C 18,3 C 87 % 1011,8 hPa 0,0 l/m 0 min 0 min 165 W/m 12,9 km/h (3 Bft) 97,83 %
30.09.2019 12:14 15,5 C 16,1 C 18,3 C 86 % 1011,7 hPa 0,0 l/m 0 min 0 min 200 W/m 25,7 km/h (4 Bft) 97,87 %
30.09.2019 12:16 15,5 C 16,1 C 18,3 C 86 % 1011,8 hPa 0,0 l/m 0 min 0 min 224 W/m 29,0 km/h (5 Bft) 97,87 %
30.09.2019 12:18 15,4 C 16,1 C 18,3 C 86 % 1011,8 hPa 0,0 l/m 0 min 0 min 216 W/m 22,5 km/h (4 Bft) 97,87 %
30.09.2019 12:20 15,4 C 15,6 C 18,3 C 85 % 1011,7 hPa 0,0 l/m 0 min 0 min 148 W/m 16,1 km/h (3 Bft) 100,00 %
30.09.2019 12:22 15,4 C 15,6 C 18,3 C 85 % 1011,9 hPa 0,0 l/m 0 min 0 min 106 W/m 19,3 km/h (3 Bft) 100,00 %
30.09.2019 12:24 15,4 C 15,0 C 18,3 C 85 % 1011,9 hPa 0,0 l/m 0 min 0 min 99 W/m 16,1 km/h (3 Bft) 100,00 %
30.09.2019 12:26 15,4 C 15,0 C 18,3 C 84 % 1012,0 hPa 0,0 l/m 0 min 0 min 116 W/m 19,3 km/h (3 Bft) 100,00 %
30.09.2019 12:28 15,3 C 15,0 C 18,3 C 84 % 1012,1 hPa 0,0 l/m 0 min 0 min 124 W/m 19,3 km/h (3 Bft) 97,87 %
30.09.2019 12:30 15,3 C 15,0 C 18,3 C 84 % 1012,0 hPa 0,0 l/m 0 min 0 min 135 W/m 16,1 km/h (3 Bft) 95,74 %
30.09.2019 12:32 15,3 C 15,6 C 18,3 C 84 % 1012,0 hPa 0,0 l/m 0 min 0 min 169 W/m 19,3 km/h (3 Bft) 100,00 %
30.09.2019 12:34 15,3 C 16,1 C 18,3 C 85 % 1012,1 hPa 0,0 l/m 0 min 0 min 253 W/m 19,3 km/h (3 Bft) 100,00 %
30.09.2019 12:36 15,4 C 16,7 C 18,3 C 84 % 1012,1 hPa 0,0 l/m 2 min 0 min 353 W/m 16,1 km/h (3 Bft) 97,83 %
30.09.2019 12:38 15,4 C 16,7 C 18,3 C 84 % 1012,1 hPa 0,0 l/m 0 min 0 min 277 W/m 22,5 km/h (4 Bft) 100,00 %
30.09.2019 12:40 15,4 C 16,7 C 18,3 C 84 % 1012,0 hPa 0,0 l/m 0 min 0 min 220 W/m 12,9 km/h (3 Bft) 100,00 %
30.09.2019 12:42 15,5 C 16,7 C 18,3 C 85 % 1012,0 hPa 0,0 l/m 0 min 0 min 181 W/m 16,1 km/h (3 Bft) 100,00 %
30.09.2019 12:44 15,6 C 16,7 C 18,3 C 85 % 1012,1 hPa 0,0 l/m 0 min 0 min 224 W/m 16,1 km/h (3 Bft) 100,00 %
30.09.2019 12:46 15,6 C 16,1 C 18,3 C 85 % 1012,0 hPa 0,0 l/m 0 min 0 min 210 W/m 16,1 km/h (3 Bft) 100,00 %
30.09.2019 12:48 15,5 C 16,1 C 18,3 C 84 % 1012,1 hPa 0,0 l/m 0 min 0 min 214 W/m 22,5 km/h (4 Bft) 100,00 %
30.09.2019 12:50 15,6 C 17,8 C 18,3 C 84 % 1012,1 hPa 0,0 l/m 0 min 0 min 235 W/m 19,3 km/h (3 Bft) 100,00 %
30.09.2019 12:52 15,7 C 17,2 C 18,3 C 84 % 1012,2 hPa 0,0 l/m 2 min 0 min 621 W/m 22,5 km/h (4 Bft) 100,00 %
30.09.2019 12:54 15,7 C 16,7 C 18,3 C 83 % 1012,2 hPa 0,0 l/m 0 min 0 min 238 W/m 19,3 km/h (3 Bft) 100,00 %
30.09.2019 12:56 15,7 C 16,7 C 18,3 C 83 % 1012,1 hPa 0,0 l/m 0 min 0 min 239 W/m 22,5 km/h (4 Bft) 100,00 %
30.09.2019 12:58 15,7 C 16,7 C 18,3 C 82 % 1012,1 hPa 0,0 l/m 0 min 0 min 243 W/m 16,1 km/h (3 Bft) 100,00 %
30.09.2019 13:00 15,8 C 17,2 C 18,3 C 83 % 1012,2 hPa 0,0 l/m 0 min 0 min 231 W/m 12,9 km/h (3 Bft) 100,00 %
30.09.2019 13:02 15,8 C 18,9 C 18,3 C 82 % 1012,2 hPa 0,0 l/m 0 min 0 min 232 W/m 16,1 km/h (3 Bft) 100,00 %
30.09.2019 13:04 15,9 C 20,6 C 18,3 C 82 % 1012,2 hPa 0,0 l/m 2 min 0 min 332 W/m 12,9 km/h (3 Bft) 100,00 %
30.09.2019 13:06 16,1 C 22,2 C 18,3 C 83 % 1012,2 hPa 0,0 l/m 2 min 0 min 399 W/m 19,3 km/h (3 Bft) 97,87 %
30.09.2019 13:08 16,3 C 21,1 C 18,3 C 84 % 1012,2 hPa 0,0 l/m 2 min 0 min 401 W/m 16,1 km/h (3 Bft) 100,00 %
30.09.2019 13:10 16,4 C 22,8 C 18,3 C 84 % 1012,2 hPa 0,0 l/m 2 min 0 min 438 W/m 9,7 km/h (2 Bft) 100,00 %
30.09.2019 13:12 16,6 C 20,0 C 18,3 C 84 % 1012,1 hPa 0,0 l/m 2 min 0 min 332 W/m 19,3 km/h (3 Bft) 100,00 %
30.09.2019 13:14 16,7 C 19,4 C 18,3 C 83 % 1012,2 hPa 0,0 l/m 2 min 0 min 338 W/m 9,7 km/h (2 Bft) 100,00 %
30.09.2019 13:16 16,8 C 19,4 C 18,3 C 82 % 1012,1 hPa 0,0 l/m 2 min 0 min 309 W/m 16,1 km/h (3 Bft) 100,00 %
30.09.2019 13:18 16,9 C 19,4 C 18,3 C 81 % 1012,2 hPa 0,0 l/m 0 min 0 min 282 W/m 22,5 km/h (4 Bft) 100,00 %
30.09.2019 13:20 16,9 C 21,1 C 18,3 C 80 % 1012,1 hPa 0,0 l/m 2 min 0 min 542 W/m 19,3 km/h (3 Bft) 100,00 %
30.09.2019 13:22 17,0 C 21,1 C 18,3 C 81 % 1012,1 hPa 0,0 l/m 2 min 0 min 703 W/m 22,5 km/h (4 Bft) 100,00 %
30.09.2019 13:24 17,1 C 19,4 C 18,3 C 80 % 1012,0 hPa 0,0 l/m 2 min 0 min 352 W/m 29,0 km/h (5 Bft) 100,00 %
30.09.2019 13:26 17,1 C 19,4 C 18,3 C 79 % 1012,1 hPa 0,0 l/m 0 min 0 min 243 W/m 16,1 km/h (3 Bft) 100,00 %
30.09.2019 13:28 17,2 C 19,4 C 18,3 C 79 % 1011,9 hPa 0,0 l/m 2 min 0 min 684 W/m 6,4 km/h (2 Bft) 100,00 %
30.09.2019 13:30 17,2 C 21,7 C 18,3 C 80 % 1012,0 hPa 0,0 l/m 2 min 0 min 728 W/m 19,3 km/h (3 Bft) 100,00 %
30.09.2019 13:32 17,3 C 22,2 C 18,3 C 80 % 1012,1 hPa 0,0 l/m 2 min 0 min 750 W/m 19,3 km/h (3 Bft) 100,00 %
30.09.2019 13:34 17,4 C 22,2 C 18,3 C 80 % 1012,1 hPa 0,0 l/m 2 min 0 min 740 W/m 16,1 km/h (3 Bft) 95,65 %
30.09.2019 13:36 17,5 C 22,8 C 18,3 C 80 % 1012,1 hPa 0,0 l/m 2 min 0 min 736 W/m 16,1 km/h (3 Bft) 95,74 %
30.09.2019 13:38 17,6 C 21,7 C 18,3 C 78 % 1012,1 hPa 0,0 l/m 2 min 0 min 667 W/m 16,1 km/h (3 Bft) 93,62 %
30.09.2019 13:40 17,6 C 21,7 C 18,3 C 78 % 1012,0 hPa 0,0 l/m 2 min 0 min 519 W/m 16,1 km/h (3 Bft) 95,74 %
30.09.2019 13:42 17,7 C 21,7 C 18,3 C 79 % 1012,0 hPa 0,0 l/m 2 min 0 min 516 W/m 12,9 km/h (3 Bft) 93,62 %
30.09.2019 13:44 17,7 C 21,7 C 18,3 C 78 % 1012,1 hPa 0,0 l/m 2 min 0 min 608 W/m 25,7 km/h (4 Bft) 93,48 %
30.09.2019 13:46 17,7 C 22,2 C 18,3 C 78 % 1012,2 hPa 0,0 l/m 2 min 0 min 658 W/m 22,5 km/h (4 Bft) 95,74 %
30.09.2019 13:48 17,8 C 21,7 C 18,3 C 78 % 1012,1 hPa 0,0 l/m 2 min 0 min 632 W/m 16,1 km/h (3 Bft) 95,74 %
30.09.2019 13:50 17,8 C 20,6 C 18,3 C 78 % 1012,2 hPa 0,0 l/m 2 min 0 min 501 W/m 19,3 km/h (3 Bft) 93,62 %
30.09.2019 13:52 17,8 C 20,0 C 18,3 C 78 % 1012,2 hPa 0,0 l/m 2 min 0 min 395 W/m 22,5 km/h (4 Bft) 95,74 %
30.09.2019 13:54 17,9 C 20,0 C 18,3 C 78 % 1012,1 hPa 0,0 l/m 2 min 0 min 421 W/m 9,7 km/h (2 Bft) 95,74 %
30.09.2019 13:56 17,8 C 20,0 C 18,3 C 78 % 1012,2 hPa 0,0 l/m 2 min 0 min 382 W/m 19,3 km/h (3 Bft) 95,65 %
30.09.2019 13:58 17,8 C 19,4 C 18,3 C 78 % 1012,1 hPa 0,0 l/m 2 min 0 min 328 W/m 9,7 km/h (2 Bft) 95,74 %
30.09.2019 14:00 17,8 C 18,9 C 18,3 C 77 % 1012,2 hPa 0,0 l/m 2 min 0 min 300 W/m 9,7 km/h (2 Bft) 95,74 %
30.09.2019 14:02 17,7 C 18,9 C 18,3 C 76 % 1012,2 hPa 0,0 l/m 2 min 0 min 334 W/m 12,9 km/h (3 Bft) 93,62 %
30.09.2019 14:04 17,7 C 18,3 C 18,3 C 76 % 1012,2 hPa 0,0 l/m 2 min 0 min 289 W/m 12,9 km/h (3 Bft) 93,62 %
30.09.2019 14:06 17,6 C 18,3 C 18,3 C 76 % 1012,2 hPa 0,0 l/m 0 min 0 min 265 W/m 12,9 km/h (3 Bft) 95,74 %
30.09.2019 14:08 17,6 C 17,8 C 18,3 C 76 % 1012,2 hPa 0,0 l/m 0 min 0 min 220 W/m 9,7 km/h (2 Bft) 95,65 %
30.09.2019 14:10 17,5 C 17,2 C 18,3 C 76 % 1012,2 hPa 0,0 l/m 0 min 0 min 179 W/m 16,1 km/h (3 Bft) 91,49 %
30.09.2019 14:12 17,4 C 17,2 C 18,3 C 76 % 1012,2 hPa 0,0 l/m 0 min 0 min 170 W/m 12,9 km/h (3 Bft) 93,62 %
30.09.2019 14:14 17,3 C 16,7 C 18,3 C 76 % 1012,2 hPa 0,0 l/m 0 min 0 min 191 W/m 16,1 km/h (3 Bft) 97,87 %
30.09.2019 14:16 17,2 C 17,2 C 18,3 C 76 % 1012,2 hPa 0,0 l/m 0 min 0 min 251 W/m 19,3 km/h (3 Bft) 97,87 %
30.09.2019 14:18 17,2 C 17,2 C 18,3 C 76 % 1012,3 hPa 0,0 l/m 0 min 0 min 266 W/m 16,1 km/h (3 Bft) 97,87 %
30.09.2019 14:20 17,2 C 17,2 C 18,3 C 77 % 1012,2 hPa 0,0 l/m 0 min 0 min 212 W/m 16,1 km/h (3 Bft) 100,00 %
30.09.2019 14:22 17,1 C 17,2 C 18,3 C 77 % 1012,2 hPa 0,0 l/m 0 min 0 min 208 W/m 22,5 km/h (4 Bft) 100,00 %
30.09.2019 14:24 17,1 C 17,2 C 18,3 C 76 % 1012,2 hPa 0,0 l/m 0 min 0 min 253 W/m 22,5 km/h (4 Bft) 97,87 %
30.09.2019 14:26 17,0 C 17,8 C 18,3 C 76 % 1012,3 hPa 0,0 l/m 2 min 0 min 332 W/m 12,9 km/h (3 Bft) 97,87 %
30.09.2019 14:28 17,0 C 18,3 C 18,3 C 76 % 1012,3 hPa 0,0 l/m 2 min 0 min 357 W/m 16,1 km/h (3 Bft) 100,00 %
30.09.2019 14:30 17,0 C 18,3 C 18,3 C 76 % 1012,3 hPa 0,0 l/m 2 min 0 min 371 W/m 19,3 km/h (3 Bft) 100,00 %
30.09.2019 14:32 17,0 C 18,3 C 18,3 C 76 % 1012,3 hPa 0,0 l/m 2 min 0 min 331 W/m 16,1 km/h (3 Bft) 100,00 %
30.09.2019 14:34 17,0 C 18,3 C 18,3 C 76 % 1012,3 hPa 0,0 l/m 2 min 0 min 290 W/m 19,3 km/h (3 Bft) 97,87 %
30.09.2019 14:36 17,0 C 18,9 C 18,3 C 77 % 1012,3 hPa 0,0 l/m 2 min 0 min 336 W/m 12,9 km/h (3 Bft) 100,00 %
30.09.2019 14:38 17,1 C 18,9 C 18,3 C 77 % 1012,3 hPa 0,0 l/m 2 min 0 min 281 W/m 25,7 km/h (4 Bft) 100,00 %
30.09.2019 14:40 17,1 C 19,4 C 18,3 C 77 % 1012,3 hPa 0,0 l/m 2 min 0 min 407 W/m 19,3 km/h (3 Bft) 100,00 %
30.09.2019 14:42 17,1 C 18,9 C 18,3 C 77 % 1012,3 hPa 0,0 l/m 2 min 0 min 336 W/m 16,1 km/h (3 Bft) 100,00 %
30.09.2019 14:44 17,1 C 18,9 C 18,3 C 77 % 1012,3 hPa 0,0 l/m 0 min 0 min 264 W/m 16,1 km/h (3 Bft) 100,00 %
30.09.2019 14:46 17,2 C 18,9 C 18,3 C 76 % 1012,3 hPa 0,0 l/m 2 min 0 min 362 W/m 16,1 km/h (3 Bft) 97,83 %
30.09.2019 14:48 17,2 C 18,3 C 18,3 C 76 % 1012,3 hPa 0,0 l/m 2 min 0 min 365 W/m 22,5 km/h (4 Bft) 97,87 %
30.09.2019 14:50 17,2 C 18,3 C 18,3 C 76 % 1012,3 hPa 0,0 l/m 0 min 0 min 200 W/m 19,3 km/h (3 Bft) 100,00 %
30.09.2019 14:52 17,2 C 18,3 C 18,3 C 76 % 1012,3 hPa 0,0 l/m 2 min 0 min 349 W/m 22,5 km/h (4 Bft) 100,00 %
30.09.2019 14:54 17,2 C 18,9 C 18,3 C 76 % 1012,3 hPa 0,0 l/m 2 min 0 min 418 W/m 12,9 km/h (3 Bft) 95,74 %
30.09.2019 14:56 17,2 C 19,4 C 18,3 C 76 % 1012,3 hPa 0,0 l/m 2 min 0 min 397 W/m 16,1 km/h (3 Bft) 97,87 %
30.09.2019 14:58 17,3 C 19,4 C 18,3 C 77 % 1012,3 hPa 0,0 l/m 2 min 0 min 366 W/m 16,1 km/h (3 Bft) 97,83 %
30.09.2019 15:00 17,3 C 19,4 C 18,3 C 77 % 1012,4 hPa 0,0 l/m 2 min 0 min 309 W/m 16,1 km/h (3 Bft) 100,00 %
30.09.2019 15:02 17,3 C 19,4 C 18,3 C 76 % 1012,3 hPa 0,0 l/m 2 min 0 min 369 W/m 19,3 km/h (3 Bft) 100,00 %
30.09.2019 15:04 17,4 C 20,0 C 18,3 C 77 % 1012,3 hPa 0,0 l/m 2 min 0 min 462 W/m 16,1 km/h (3 Bft) 97,87 %
30.09.2019 15:06 17,5 C 21,1 C 18,3 C 77 % 1012,4 hPa 0,0 l/m 2 min 0 min 591 W/m 12,9 km/h (3 Bft) 95,74 %
30.09.2019 15:08 17,6 C 22,2 C 18,3 C 77 % 1012,3 hPa 0,0 l/m 2 min 0 min 533 W/m 19,3 km/h (3 Bft) 95,74 %
30.09.2019 15:10 17,7 C 21,7 C 18,3 C 76 % 1012,3 hPa 0,0 l/m 2 min 0 min 692 W/m 22,5 km/h (4 Bft) 100,00 %
30.09.2019 15:12 17,8 C 21,1 C 18,3 C 75 % 1012,4 hPa 0,0 l/m 2 min 0 min 467 W/m 19,3 km/h (3 Bft) 97,87 %
30.09.2019 15:14 17,8 C 21,7 C 18,3 C 76 % 1012,3 hPa 0,0 l/m 2 min 0 min 481 W/m 9,7 km/h (2 Bft) 97,87 %
30.09.2019 15:16 17,9 C 21,7 C 18,3 C 76 % 1012,2 hPa 0,0 l/m 2 min 0 min 475 W/m 16,1 km/h (3 Bft) 97,87 %
30.09.2019 15:18 18,0 C 21,1 C 18,3 C 76 % 1012,4 hPa 0,0 l/m 2 min 0 min 435 W/m 16,1 km/h (3 Bft) 97,87 %
30.09.2019 15:20 18,0 C 20,0 C 18,3 C 74 % 1012,3 hPa 0,0 l/m 2 min 0 min 412 W/m 16,1 km/h (3 Bft) 97,83 %
30.09.2019 15:22 18,0 C 19,4 C 18,3 C 75 % 1012,4 hPa 0,0 l/m 2 min 0 min 334 W/m 22,5 km/h (4 Bft) 97,87 %
30.09.2019 15:24 18,0 C 19,4 C 18,3 C 74 % 1012,3 hPa 0,0 l/m 0 min 0 min 194 W/m 16,1 km/h (3 Bft) 97,87 %
30.09.2019 15:26 18,0 C 20,6 C 18,3 C 74 % 1012,4 hPa 0,0 l/m 2 min 0 min 410 W/m 9,7 km/h (2 Bft) 97,87 %
30.09.2019 15:28 18,0 C 21,1 C 18,3 C 75 % 1012,3 hPa 0,0 l/m 2 min 0 min 491 W/m 9,7 km/h (2 Bft) 97,87 %
30.09.2019 15:30 18,0 C 21,1 C 18,3 C 74 % 1012,3 hPa 0,0 l/m 2 min 0 min 518 W/m 19,3 km/h (3 Bft) 97,87 %
30.09.2019 15:32 18,1 C 21,1 C 18,3 C 74 % 1012,4 hPa 0,0 l/m 2 min 0 min 506 W/m 16,1 km/h (3 Bft) 97,83 %
30.09.2019 15:34 18,1 C 21,7 C 18,3 C 74 % 1012,3 hPa 0,0 l/m 2 min 0 min 607 W/m 12,9 km/h (3 Bft) 97,87 %
30.09.2019 15:36 18,2 C 22,2 C 18,3 C 75 % 1012,3 hPa 0,0 l/m 2 min 0 min 540 W/m 9,7 km/h (2 Bft) 97,87 %
30.09.2019 15:38 18,2 C 22,2 C 18,3 C 74 % 1012,3 hPa 0,0 l/m 2 min 0 min 546 W/m 9,7 km/h (2 Bft) 97,87 %
30.09.2019 15:40 18,2 C 21,7 C 18,3 C 74 % 1012,3 hPa 0,0 l/m 2 min 0 min 548 W/m 9,7 km/h (2 Bft) 95,74 %
30.09.2019 15:42 18,3 C 21,1 C 18,3 C 74 % 1012,3 hPa 0,0 l/m 2 min 0 min 548 W/m 16,1 km/h (3 Bft) 97,87 %
30.09.2019 15:44 18,3 C 18,9 C 18,3 C 72 % 1012,3 hPa 0,0 l/m 2 min 0 min 320 W/m 19,3 km/h (3 Bft) 100,00 %
30.09.2019 15:46 18,2 C 19,4 C 18,3 C 72 % 1012,4 hPa 0,0 l/m 2 min 0 min 236 W/m 16,1 km/h (3 Bft) 97,87 %
30.09.2019 15:48 18,2 C 20,6 C 18,3 C 72 % 1012,4 hPa 0,0 l/m 2 min 0 min 236 W/m 6,4 km/h (2 Bft) 97,87 %
30.09.2019 15:50 18,2 C 21,7 C 18,3 C 72 % 1012,4 hPa 0,0 l/m 2 min 0 min 342 W/m 19,3 km/h (3 Bft) 97,87 %
30.09.2019 15:52 18,2 C 20,0 C 18,3 C 72 % 1012,4 hPa 0,0 l/m 2 min 0 min 551 W/m 19,3 km/h (3 Bft) 95,74 %
30.09.2019 15:54 18,2 C 20,6 C 18,3 C 72 % 1012,4 hPa 0,0 l/m 2 min 0 min 494 W/m 16,1 km/h (3 Bft) 95,74 %
30.09.2019 15:56 18,2 C 21,7 C 18,3 C 73 % 1012,4 hPa 0,0 l/m 2 min 0 min 506 W/m 9,7 km/h (2 Bft) 95,65 %
30.09.2019 15:58 18,2 C 21,1 C 18,3 C 73 % 1012,4 hPa 0,0 l/m 2 min 0 min 516 W/m 12,9 km/h (3 Bft) 95,74 %
30.09.2019 16:00 18,2 C 20,0 C 18,3 C 73 % 1012,4 hPa 0,0 l/m 2 min 0 min 279 W/m 9,7 km/h (2 Bft) 93,62 %
30.09.2019 16:02 18,2 C 18,9 C 18,3 C 73 % 1012,4 hPa 0,0 l/m 0 min 0 min 137 W/m 16,1 km/h (3 Bft) 95,74 %
30.09.2019 16:04 18,1 C 17,8 C 18,3 C 73 % 1012,4 hPa 0,0 l/m 0 min 0 min 118 W/m 9,7 km/h (2 Bft) 95,74 %
30.09.2019 16:06 18,0 C 17,2 C 18,3 C 73 % 1012,4 hPa 0,0 l/m 0 min 0 min 118 W/m 9,7 km/h (2 Bft) 95,74 %
30.09.2019 16:08 17,9 C 17,8 C 18,3 C 73 % 1012,4 hPa 0,0 l/m 0 min 0 min 120 W/m 9,7 km/h (2 Bft) 95,65 %
30.09.2019 16:10 17,9 C 18,3 C 18,3 C 73 % 1012,3 hPa 0,0 l/m 0 min 0 min 124 W/m 6,4 km/h (2 Bft) 95,74 %
30.09.2019 16:12 17,8 C 18,3 C 18,3 C 74 % 1012,3 hPa 0,0 l/m 0 min 0 min 130 W/m 6,4 km/h (2 Bft) 93,62 %
30.09.2019 16:14 17,8 C 19,4 C 18,3 C 75 % 1012,4 hPa 0,0 l/m 0 min 0 min 139 W/m 9,7 km/h (2 Bft) 93,62 %
30.09.2019 16:16 17,8 C 20,0 C 18,3 C 75 % 1012,4 hPa 0,0 l/m 2 min 0 min 401 W/m 12,9 km/h (3 Bft) 93,62 %
30.09.2019 16:18 17,8 C 19,4 C 18,3 C 75 % 1012,4 hPa 0,0 l/m 2 min 0 min 308 W/m 12,9 km/h (3 Bft) 91,30 %
30.09.2019 16:20 17,8 C 19,4 C 18,3 C 75 % 1012,4 hPa 0,0 l/m 0 min 0 min 195 W/m 12,9 km/h (3 Bft) 93,62 %
30.09.2019 16:22 17,8 C 20,0 C 18,3 C 75 % 1012,3 hPa 0,0 l/m 2 min 0 min 270 W/m 16,1 km/h (3 Bft) 95,74 %
30.09.2019 16:24 17,8 C 20,6 C 18,3 C 75 % 1012,5 hPa 0,0 l/m 2 min 0 min 324 W/m 12,9 km/h (3 Bft) 97,87 %
30.09.2019 16:26 17,8 C 18,9 C 18,3 C 74 % 1012,3 hPa 0,0 l/m 2 min 0 min 254 W/m 16,1 km/h (3 Bft) 95,74 %
30.09.2019 16:28 17,8 C 18,3 C 18,3 C 74 % 1012,4 hPa 0,0 l/m 0 min 0 min 85 W/m 12,9 km/h (3 Bft) 93,62 %
30.09.2019 16:30 17,7 C 17,2 C 18,3 C 73 % 1012,6 hPa 0,0 l/m 0 min 0 min 86 W/m 19,3 km/h (3 Bft) 95,65 %
30.09.2019 16:32 17,7 C 18,3 C 18,3 C 72 % 1012,3 hPa 0,0 l/m 0 min 0 min 114 W/m 19,3 km/h (3 Bft) 95,74 %
30.09.2019 16:34 17,6 C 19,4 C 18,3 C 73 % 1012,4 hPa 0,0 l/m 2 min 0 min 450 W/m 12,9 km/h (3 Bft) 97,87 %
30.09.2019 16:36 17,6 C 17,8 C 18,3 C 73 % 1012,3 hPa 0,0 l/m 0 min 0 min 181 W/m 12,9 km/h (3 Bft) 97,87 %
30.09.2019 16:38 17,6 C 17,2 C 18,3 C 73 % 1012,3 hPa 0,0 l/m 0 min 0 min 67 W/m 16,1 km/h (3 Bft) 98,00 %
30.09.2019 16:40 17,6 C 18,3 C 18,3 C 73 % 1012,3 hPa 0,0 l/m 0 min 0 min 86 W/m 9,7 km/h (2 Bft) 93,62 %
30.09.2019 16:42 17,6 C 17,8 C 18,3 C 73 % 1012,3 hPa 0,0 l/m 0 min 0 min 84 W/m 6,4 km/h (2 Bft) 97,83 %
30.09.2019 16:44 17,5 C 17,2 C 18,3 C 73 % 1012,3 hPa 0,0 l/m 0 min 0 min 90 W/m 6,4 km/h (2 Bft) 97,87 %
30.09.2019 16:46 17,4 C 16,7 C 18,3 C 73 % 1012,2 hPa 0,0 l/m 0 min 0 min 81 W/m 9,7 km/h (2 Bft) 97,87 %
30.09.2019 16:48 17,4 C 16,7 C 18,3 C 74 % 1012,3 hPa 0,0 l/m 0 min 0 min 82 W/m 6,4 km/h (2 Bft) 97,87 %
30.09.2019 16:50 17,4 C 16,7 C 18,3 C 75 % 1012,3 hPa 0,0 l/m 0 min 0 min 99 W/m 9,7 km/h (2 Bft) 95,74 %
30.09.2019 16:52 17,3 C 16,7 C 18,3 C 74 % 1012,3 hPa 0,0 l/m 0 min 0 min 77 W/m 6,4 km/h (2 Bft) 97,87 %
30.09.2019 16:54 17,3 C 16,7 C 18,3 C 75 % 1012,3 hPa 0,0 l/m 0 min 0 min 76 W/m 12,9 km/h (3 Bft) 97,83 %
30.09.2019 16:56 17,2 C 17,2 C 18,3 C 75 % 1012,2 hPa 0,0 l/m 0 min 0 min 107 W/m 3,2 km/h (1 Bft) 97,87 %
30.09.2019 16:58 17,2 C 16,7 C 18,3 C 75 % 1012,2 hPa 0,0 l/m 0 min 0 min 73 W/m 12,9 km/h (3 Bft) 97,87 %
30.09.2019 17:00 17,1 C 16,7 C 18,3 C 75 % 1012,3 hPa 0,0 l/m 0 min 0 min 73 W/m 6,4 km/h (2 Bft) 97,87 %
30.09.2019 17:02 17,1 C 16,1 C 18,3 C 76 % 1012,3 hPa 0,0 l/m 0 min 0 min 64 W/m 3,2 km/h (1 Bft) 100,00 %
30.09.2019 17:04 17,1 C 16,1 C 18,3 C 76 % 1012,2 hPa 0,0 l/m 0 min 0 min 52 W/m 6,4 km/h (2 Bft) 100,00 %
30.09.2019 17:06 17,0 C 15,6 C 18,3 C 76 % 1012,2 hPa 0,0 l/m 0 min 0 min 44 W/m 3,2 km/h (1 Bft) 100,00 %
30.09.2019 17:08 16,9 C 15,6 C 18,3 C 76 % 1012,2 hPa 0,0 l/m 0 min 0 min 35 W/m 6,4 km/h (2 Bft) 95,74 %
30.09.2019 17:10 16,9 C 15,6 C 18,3 C 76 % 1012,2 hPa 0,0 l/m 0 min 0 min 29 W/m 9,7 km/h (2 Bft) 97,87 %
30.09.2019 17:12 16,8 C 15,6 C 18,3 C 76 % 1012,2 hPa 0,0 l/m 0 min 0 min 24 W/m 6,4 km/h (2 Bft) 100,00 %
30.09.2019 17:14 16,8 C 15,0 C 18,3 C 76 % 1012,2 hPa 0,0 l/m 0 min 0 min 24 W/m 6,4 km/h (2 Bft) 100,00 %
30.09.2019 17:16 16,7 C 15,0 C 18,3 C 76 % 1012,2 hPa 0,0 l/m 0 min 0 min 25 W/m 6,4 km/h (2 Bft) 100,00 %
30.09.2019 17:18 16,7 C 15,0 C 18,3 C 77 % 1012,2 hPa 0,0 l/m 0 min 0 min 32 W/m 6,4 km/h (2 Bft) 97,87 %
30.09.2019 17:20 16,6 C 15,6 C 18,3 C 77 % 1012,2 hPa 0,0 l/m 0 min 0 min 45 W/m 6,4 km/h (2 Bft) 97,87 %
30.09.2019 17:22 16,6 C 15,6 C 18,3 C 78 % 1012,1 hPa 0,0 l/m 0 min 0 min 64 W/m 6,4 km/h (2 Bft) 100,00 %
30.09.2019 17:24 16,5 C 15,6 C 18,3 C 77 % 1012,2 hPa 0,0 l/m 0 min 0 min 68 W/m 12,9 km/h (3 Bft) 100,00 %
30.09.2019 17:26 16,4 C 15,6 C 18,3 C 78 % 1012,1 hPa 0,0 l/m 0 min 0 min 63 W/m 12,9 km/h (3 Bft) 100,00 %
30.09.2019 17:28 16,4 C 16,1 C 18,3 C 78 % 1012,2 hPa 0,0 l/m 0 min 0 min 61 W/m 16,1 km/h (3 Bft) 100,00 %
30.09.2019 17:30 16,4 C 16,1 C 18,3 C 78 % 1012,2 hPa 0,0 l/m 0 min 0 min 62 W/m 16,1 km/h (3 Bft) 100,00 %
30.09.2019 17:32 16,4 C 16,1 C 18,3 C 78 % 1012,2 hPa 0,0 l/m 0 min 0 min 67 W/m 12,9 km/h (3 Bft) 100,00 %
30.09.2019 17:34 16,4 C 16,1 C 18,3 C 79 % 1012,2 hPa 0,0 l/m 0 min 0 min 62 W/m 9,7 km/h (2 Bft) 100,00 %
30.09.2019 17:36 16,3 C 16,1 C 18,3 C 79 % 1012,2 hPa 0,0 l/m 0 min 0 min 61 W/m 6,4 km/h (2 Bft) 100,00 %
30.09.2019 17:38 16,3 C 16,1 C 18,3 C 80 % 1012,2 hPa 0,0 l/m 0 min 0 min 65 W/m 19,3 km/h (3 Bft) 100,00 %
30.09.2019 17:40 16,3 C 16,1 C 18,3 C 79 % 1012,2 hPa 0,0 l/m 0 min 0 min 67 W/m 19,3 km/h (3 Bft) 100,00 %
30.09.2019 17:42 16,3 C 15,6 C 18,3 C 79 % 1012,2 hPa 0,0 l/m 0 min 0 min 69 W/m 12,9 km/h (3 Bft) 100,00 %
30.09.2019 17:44 16,3 C 16,1 C 18,3 C 79 % 1012,2 hPa 0,0 l/m 0 min 0 min 71 W/m 12,9 km/h (3 Bft) 100,00 %
30.09.2019 17:46 16,3 C 16,1 C 18,3 C 80 % 1012,2 hPa 0,0 l/m 0 min 0 min 75 W/m 6,4 km/h (2 Bft) 100,00 %
30.09.2019 17:48 16,3 C 15,6 C 18,3 C 80 % 1012,2 hPa 0,0 l/m 0 min 0 min 74 W/m 16,1 km/h (3 Bft) 97,87 %
30.09.2019 17:50 16,3 C 15,6 C 18,3 C 80 % 1012,2 hPa 0,0 l/m 0 min 0 min 69 W/m 12,9 km/h (3 Bft) 97,87 %
30.09.2019 17:52 16,3 C 15,6 C 18,3 C 80 % 1012,2 hPa 0,0 l/m 0 min 0 min 62 W/m 12,9 km/h (3 Bft) 100,00 %
30.09.2019 17:54 16,3 C 15,6 C 18,3 C 80 % 1012,2 hPa 0,0 l/m 0 min 0 min 58 W/m 6,4 km/h (2 Bft) 100,00 %
30.09.2019 17:56 16,3 C 15,6 C 18,3 C 80 % 1012,2 hPa 0,0 l/m 0 min 0 min 50 W/m 9,7 km/h (2 Bft) 100,00 %
30.09.2019 17:58 16,3 C 15,6 C 18,3 C 80 % 1012,2 hPa 0,0 l/m 0 min 0 min 40 W/m 12,9 km/h (3 Bft) 100,00 %
30.09.2019 18:00 16,2 C 15,6 C 18,3 C 80 % 1012,2 hPa 0,0 l/m 0 min 0 min 34 W/m 6,4 km/h (2 Bft) 100,00 %
30.09.2019 18:02 16,2 C 15,6 C 18,3 C 80 % 1012,1 hPa 0,0 l/m 0 min 0 min 33 W/m 6,4 km/h (2 Bft) 97,87 %
30.09.2019 18:04 16,2 C 15,6 C 18,3 C 80 % 1012,1 hPa 0,0 l/m 0 min 0 min 34 W/m 6,4 km/h (2 Bft) 100,00 %
30.09.2019 18:08 16,2 C 15,6 C 18,3 C 80 % 1012,1 hPa 0,0 l/m 0 min 0 min 39 W/m 6,4 km/h (2 Bft) 98,94 %
30.09.2019 18:10 16,2 C 15,6 C 18,3 C 80 % 1012,2 hPa 0,0 l/m 0 min 0 min 43 W/m 9,7 km/h (2 Bft) 100,00 %
30.09.2019 18:12 16,2 C 15,6 C 18,3 C 80 % 1012,2 hPa 0,0 l/m 0 min 0 min 41 W/m 3,2 km/h (1 Bft) 100,00 %
30.09.2019 18:14 16,2 C 15,6 C 18,3 C 80 % 1012,2 hPa 0,0 l/m 0 min 0 min 38 W/m 6,4 km/h (2 Bft) 100,00 %
30.09.2019 18:16 16,2 C 15,6 C 18,3 C 80 % 1012,2 hPa 0,0 l/m 0 min 0 min 34 W/m 6,4 km/h (2 Bft) 100,00 %
30.09.2019 18:18 16,2 C 15,6 C 18,3 C 80 % 1012,3 hPa 0,0 l/m 0 min 0 min 30 W/m 6,4 km/h (2 Bft) 100,00 %
30.09.2019 18:20 16,2 C 15,6 C 18,3 C 80 % 1012,3 hPa 0,0 l/m 0 min 0 min 27 W/m 9,7 km/h (2 Bft) 97,87 %
30.09.2019 18:22 16,2 C 15,6 C 18,3 C 80 % 1012,2 hPa 0,0 l/m 0 min 0 min 30 W/m 6,4 km/h (2 Bft) 100,00 %
30.09.2019 18:24 16,2 C 15,6 C 18,3 C 80 % 1012,2 hPa 0,0 l/m 0 min 0 min 34 W/m 6,4 km/h (2 Bft) 97,87 %
30.09.2019 18:26 16,2 C 15,6 C 18,3 C 80 % 1012,2 hPa 0,0 l/m 0 min 0 min 37 W/m 6,4 km/h (2 Bft) 97,83 %
30.09.2019 18:28 16,1 C 15,6 C 18,3 C 80 % 1012,1 hPa 0,0 l/m 0 min 0 min 34 W/m 9,7 km/h (2 Bft) 97,87 %
30.09.2019 18:30 16,1 C 15,6 C 18,3 C 80 % 1012,1 hPa 0,0 l/m 0 min 0 min 35 W/m 3,2 km/h (1 Bft) 95,74 %
30.09.2019 18:32 16,1 C 15,6 C 18,3 C 80 % 1012,1 hPa 0,0 l/m 0 min 0 min 33 W/m 6,4 km/h (2 Bft) 97,87 %
30.09.2019 18:34 16,1 C 15,6 C 18,3 C 80 % 1012,1 hPa 0,0 l/m 0 min 0 min 30 W/m 6,4 km/h (2 Bft) 95,74 %
30.09.2019 18:36 16,1 C 15,6 C 18,3 C 80 % 1012,1 hPa 0,0 l/m 0 min 0 min 28 W/m 6,4 km/h (2 Bft) 95,74 %
30.09.2019 18:38 16,1 C 15,6 C 18,3 C 80 % 1012,1 hPa 0,0 l/m 0 min 0 min 28 W/m 16,1 km/h (3 Bft) 95,65 %
30.09.2019 18:40 16,1 C 15,6 C 18,3 C 80 % 1012,1 hPa 0,0 l/m 0 min 0 min 26 W/m 3,2 km/h (1 Bft) 93,62 %
30.09.2019 18:42 16,1 C 15,0 C 18,3 C 80 % 1012,1 hPa 0,0 l/m 0 min 0 min 26 W/m 3,2 km/h (1 Bft) 93,62 %
30.09.2019 18:44 16,1 C 15,0 C 18,3 C 80 % 1012,1 hPa 0,0 l/m 0 min 0 min 28 W/m 3,2 km/h (1 Bft) 95,74 %
30.09.2019 18:46 16,1 C 15,0 C 18,3 C 80 % 1012,1 hPa 0,0 l/m 0 min 0 min 26 W/m 3,2 km/h (1 Bft) 93,62 %
30.09.2019 18:48 16,1 C 15,0 C 18,3 C 80 % 1012,1 hPa 0,0 l/m 0 min 0 min 25 W/m 9,7 km/h (2 Bft) 97,87 %
30.09.2019 18:50 16,0 C 15,0 C 18,3 C 80 % 1012,1 hPa 0,0 l/m 0 min 0 min 23 W/m 6,4 km/h (2 Bft) 95,65 %
30.09.2019 18:52 16,0 C 15,0 C 18,3 C 80 % 1012,1 hPa 0,0 l/m 0 min 0 min 20 W/m 3,2 km/h (1 Bft) 93,62 %
30.09.2019 18:54 16,0 C 15,0 C 18,3 C 80 % 1012,1 hPa 0,0 l/m 0 min 0 min 19 W/m 6,4 km/h (2 Bft) 95,74 %
30.09.2019 18:56 16,0 C 15,0 C 18,3 C 80 % 1012,1 hPa 0,0 l/m 0 min 0 min 17 W/m 3,2 km/h (1 Bft) 93,62 %
30.09.2019 18:58 16,0 C 15,0 C 18,3 C 80 % 1012,1 hPa 0,0 l/m 0 min 0 min 14 W/m 3,2 km/h (1 Bft) 95,74 %
30.09.2019 19:00 15,9 C 15,0 C 18,3 C 80 % 1012,1 hPa 0,0 l/m 0 min 0 min 13 W/m 3,2 km/h (1 Bft) 95,74 %
30.09.2019 19:02 15,9 C 15,0 C 18,3 C 80 % 1012,1 hPa 0,0 l/m 0 min 0 min 12 W/m 3,2 km/h (1 Bft) 95,65 %
30.09.2019 19:04 15,9 C 15,0 C 18,3 C 80 % 1012,0 hPa 0,0 l/m 0 min 0 min 11 W/m 0,0 km/h (0 Bft) 95,74 %
30.09.2019 19:06 15,9 C 15,0 C 18,3 C 80 % 1012,0 hPa 0,0 l/m 0 min 0 min 9 W/m 3,2 km/h (1 Bft) 95,74 %
30.09.2019 19:08 15,9 C 14,4 C 18,3 C 80 % 1012,1 hPa 0,0 l/m 0 min 0 min 8 W/m 3,2 km/h (1 Bft) 93,62 %
30.09.2019 19:10 15,9 C 14,4 C 18,3 C 80 % 1012,0 hPa 0,0 l/m 0 min 0 min 6 W/m 3,2 km/h (1 Bft) 93,62 %
30.09.2019 19:12 15,9 C 14,4 C 18,3 C 81 % 1012,1 hPa 0,0 l/m 0 min 0 min 4 W/m 3,2 km/h (1 Bft) 95,65 %
30.09.2019 19:14 15,8 C 14,4 C 18,3 C 81 % 1012,1 hPa 0,0 l/m 0 min 0 min 0 W/m 6,4 km/h (2 Bft) 97,87 %
30.09.2019 19:16 15,8 C 14,4 C 18,3 C 80 % 1012,0 hPa 0,0 l/m 0 min 0 min 0 W/m 6,4 km/h (2 Bft) 97,87 %
30.09.2019 19:18 15,8 C 14,4 C 18,3 C 80 % 1012,0 hPa 0,0 l/m 0 min 0 min 0 W/m 6,4 km/h (2 Bft) 95,74 %
30.09.2019 19:20 15,8 C 14,4 C 18,3 C 80 % 1012,0 hPa 0,0 l/m 0 min 0 min 0 W/m 3,2 km/h (1 Bft) 97,87 %
30.09.2019 19:22 15,8 C 14,4 C 18,3 C 80 % 1012,0 hPa 0,0 l/m 0 min 0 min 0 W/m 3,2 km/h (1 Bft) 95,74 %
30.09.2019 19:24 15,7 C 14,4 C 18,3 C 80 % 1011,9 hPa 0,0 l/m 0 min 0 min 0 W/m 6,4 km/h (2 Bft) 95,65 %
30.09.2019 19:26 15,7 C 14,4 C 18,3 C 80 % 1011,9 hPa 0,0 l/m 0 min 0 min 0 W/m 6,4 km/h (2 Bft) 95,74 %
30.09.2019 19:28 15,7 C 14,4 C 18,3 C 81 % 1011,9 hPa 0,0 l/m 0 min 0 min 0 W/m 6,4 km/h (2 Bft) 93,62 %
30.09.2019 19:30 15,7 C 14,4 C 18,3 C 81 % 1011,9 hPa 0,0 l/m 0 min 0 min 0 W/m 6,4 km/h (2 Bft) 93,62 %
30.09.2019 19:32 15,6 C 14,4 C 18,3 C 81 % 1011,9 hPa 0,0 l/m 0 min 0 min 0 W/m 6,4 km/h (2 Bft) 95,74 %
30.09.2019 19:34 15,6 C 14,4 C 18,3 C 81 % 1011,9 hPa 0,0 l/m 0 min 0 min 0 W/m 3,2 km/h (1 Bft) 97,87 %
30.09.2019 19:36 15,6 C 14,4 C 18,3 C 81 % 1011,9 hPa 0,0 l/m 0 min 0 min 0 W/m 6,4 km/h (2 Bft) 97,83 %
30.09.2019 19:38 15,6 C 14,4 C 18,3 C 81 % 1011,9 hPa 0,0 l/m 0 min 0 min 0 W/m 6,4 km/h (2 Bft) 95,74 %
30.09.2019 19:40 15,6 C 14,4 C 18,3 C 81 % 1011,9 hPa 0,0 l/m 0 min 0 min 0 W/m 3,2 km/h (1 Bft) 97,87 %
30.09.2019 19:42 15,5 C 14,4 C 18,3 C 81 % 1011,9 hPa 0,0 l/m 0 min 0 min 0 W/m 3,2 km/h (1 Bft) 97,87 %
30.09.2019 19:44 15,5 C 14,4 C 18,3 C 81 % 1011,9 hPa 0,0 l/m 0 min 0 min 0 W/m 3,2 km/h (1 Bft) 95,74 %
30.09.2019 19:46 15,5 C 14,4 C 18,3 C 81 % 1011,8 hPa 0,0 l/m 0 min 0 min 0 W/m 3,2 km/h (1 Bft) 97,87 %
30.09.2019 19:48 15,5 C 14,4 C 18,3 C 81 % 1011,8 hPa 0,0 l/m 0 min 0 min 0 W/m 3,2 km/h (1 Bft) 97,83 %
30.09.2019 19:50 15,4 C 14,4 C 18,3 C 81 % 1011,8 hPa 0,0 l/m 0 min 0 min 0 W/m 3,2 km/h (1 Bft) 97,87 %
30.09.2019 19:52 15,4 C 14,4 C 18,3 C 81 % 1011,8 hPa 0,0 l/m 0 min 0 min 0 W/m 3,2 km/h (1 Bft) 97,87 %
30.09.2019 19:54 15,4 C 14,4 C 18,3 C 81 % 1011,7 hPa 0,0 l/m 0 min 0 min 0 W/m 0,0 km/h (0 Bft) 95,74 %
30.09.2019 19:56 15,4 C 14,4 C 18,3 C 81 % 1011,7 hPa 0,0 l/m 0 min 0 min 0 W/m 3,2 km/h (1 Bft) 93,62 %
30.09.2019 19:58 15,4 C 14,4 C 18,3 C 81 % 1011,7 hPa 0,0 l/m 0 min 0 min 0 W/m 3,2 km/h (1 Bft) 97,87 %
30.09.2019 20:00 15,4 C 14,4 C 18,3 C 82 % 1011,8 hPa 0,0 l/m 0 min 0 min 0 W/m 6,4 km/h (2 Bft) 97,83 %
30.09.2019 20:02 15,4 C 14,4 C 18,3 C 82 % 1011,8 hPa 0,0 l/m 0 min 0 min 0 W/m 6,4 km/h (2 Bft) 97,87 %
30.09.2019 20:04 15,3 C 14,4 C 18,3 C 82 % 1011,8 hPa 0,0 l/m 0 min 0 min 0 W/m 6,4 km/h (2 Bft) 97,87 %
30.09.2019 20:06 15,3 C 14,4 C 18,3 C 82 % 1011,7 hPa 0,0 l/m 0 min 0 min 0 W/m 6,4 km/h (2 Bft) 95,74 %
30.09.2019 20:08 15,3 C 14,4 C 18,3 C 82 % 1011,7 hPa 0,0 l/m 0 min 0 min 0 W/m 3,2 km/h (1 Bft) 95,74 %
30.09.2019 20:10 15,3 C 14,4 C 18,3 C 82 % 1011,8 hPa 0,0 l/m 0 min 0 min 0 W/m 3,2 km/h (1 Bft) 97,83 %
30.09.2019 20:12 15,3 C 14,4 C 18,3 C 82 % 1011,8 hPa 0,0 l/m 0 min 0 min 0 W/m 6,4 km/h (2 Bft) 95,74 %
30.09.2019 20:14 15,3 C 14,4 C 18,3 C 82 % 1011,9 hPa 0,0 l/m 0 min 0 min 0 W/m 3,2 km/h (1 Bft) 89,36 %
30.09.2019 20:16 15,3 C 14,4 C 18,3 C 83 % 1011,9 hPa 0,0 l/m 0 min 0 min 0 W/m 3,2 km/h (1 Bft) 97,87 %
30.09.2019 20:18 15,2 C 14,4 C 18,3 C 83 % 1011,8 hPa 0,0 l/m 0 min 0 min 0 W/m 6,4 km/h (2 Bft) 97,87 %
30.09.2019 20:20 15,2 C 14,4 C 18,3 C 83 % 1011,8 hPa 0,0 l/m 0 min 0 min 0 W/m 6,4 km/h (2 Bft) 97,87 %
30.09.2019 20:22 15,2 C 14,4 C 18,3 C 83 % 1011,9 hPa 0,0 l/m 0 min 0 min 0 W/m 6,4 km/h (2 Bft) 97,83 %
30.09.2019 20:24 15,2 C 14,4 C 18,3 C 83 % 1011,8 hPa 0,0 l/m 0 min 0 min 0 W/m 6,4 km/h (2 Bft) 97,87 %
30.09.2019 20:26 15,2 C 14,4 C 18,3 C 83 % 1011,9 hPa 0,0 l/m 0 min 0 min 0 W/m 6,4 km/h (2 Bft) 100,00 %
30.09.2019 20:28 15,2 C 14,4 C 18,3 C 83 % 1011,9 hPa 0,0 l/m 0 min 0 min 0 W/m 6,4 km/h (2 Bft) 100,00 %
30.09.2019 20:30 15,2 C 14,4 C 18,3 C 83 % 1011,8 hPa 0,0 l/m 0 min 0 min 0 W/m 6,4 km/h (2 Bft) 100,00 %
30.09.2019 20:32 15,2 C 14,4 C 18,3 C 83 % 1011,8 hPa 0,0 l/m 0 min 0 min 0 W/m 6,4 km/h (2 Bft) 100,00 %
30.09.2019 20:34 15,1 C 14,4 C 18,3 C 83 % 1011,7 hPa 0,0 l/m 0 min 0 min 0 W/m 3,2 km/h (1 Bft) 97,83 %
30.09.2019 20:36 15,1 C 14,4 C 18,3 C 83 % 1011,7 hPa 0,0 l/m 0 min 0 min 0 W/m 6,4 km/h (2 Bft) 100,00 %
30.09.2019 20:38 15,1 C 14,4 C 18,3 C 83 % 1011,7 hPa 0,0 l/m 0 min 0 min 0 W/m 6,4 km/h (2 Bft) 100,00 %
30.09.2019 20:40 15,1 C 14,4 C 18,3 C 84 % 1011,6 hPa 0,0 l/m 0 min 0 min 0 W/m 3,2 km/h (1 Bft) 100,00 %
30.09.2019 20:42 15,1 C 14,4 C 18,3 C 84 % 1011,6 hPa 0,0 l/m 0 min 0 min 0 W/m 3,2 km/h (1 Bft) 97,87 %
30.09.2019 20:44 15,1 C 14,4 C 18,3 C 84 % 1011,5 hPa 0,0 l/m 0 min 0 min 0 W/m 3,2 km/h (1 Bft) 97,87 %
30.09.2019 20:46 15,1 C 14,4 C 18,3 C 84 % 1011,5 hPa 0,0 l/m 0 min 0 min 0 W/m 6,4 km/h (2 Bft) 100,00 %
30.09.2019 20:48 15,1 C 14,4 C 18,3 C 84 % 1011,5 hPa 0,0 l/m 0 min 0 min 0 W/m 3,2 km/h (1 Bft) 100,00 %
30.09.2019 20:50 15,1 C 14,4 C 18,3 C 84 % 1011,5 hPa 0,0 l/m 0 min 0 min 0 W/m 6,4 km/h (2 Bft) 100,00 %
30.09.2019 20:52 15,1 C 14,4 C 18,3 C 84 % 1011,5 hPa 0,0 l/m 0 min 0 min 0 W/m 6,4 km/h (2 Bft) 100,00 %
30.09.2019 20:54 15,1 C 14,4 C 18,3 C 84 % 1011,5 hPa 0,0 l/m 0 min 0 min 0 W/m 6,4 km/h (2 Bft) 100,00 %
30.09.2019 20:56 15,1 C 14,4 C 18,3 C 84 % 1011,5 hPa 0,0 l/m 0 min 0 min 0 W/m 6,4 km/h (2 Bft) 100,00 %
30.09.2019 20:58 15,1 C 14,4 C 18,3 C 84 % 1011,5 hPa 0,0 l/m 0 min 0 min 0 W/m 9,7 km/h (2 Bft) 100,00 %
30.09.2019 21:00 15,1 C 14,4 C 18,3 C 84 % 1011,6 hPa 0,0 l/m 0 min 0 min 0 W/m 6,4 km/h (2 Bft) 100,00 %
30.09.2019 21:02 15,0 C 14,4 C 18,3 C 84 % 1011,6 hPa 0,0 l/m 0 min 0 min 0 W/m 6,4 km/h (2 Bft) 100,00 %
30.09.2019 21:04 15,0 C 14,4 C 18,3 C 84 % 1011,5 hPa 0,0 l/m 0 min 0 min 0 W/m 6,4 km/h (2 Bft) 100,00 %
30.09.2019 21:06 15,0 C 14,4 C 18,3 C 84 % 1011,6 hPa 0,0 l/m 0 min 0 min 0 W/m 9,7 km/h (2 Bft) 97,87 %
30.09.2019 21:08 15,0 C 14,4 C 18,3 C 84 % 1011,6 hPa 0,0 l/m 0 min 0 min 0 W/m 6,4 km/h (2 Bft) 97,87 %
30.09.2019 21:10 15,0 C 14,4 C 18,3 C 84 % 1011,6 hPa 0,0 l/m 0 min 0 min 0 W/m 6,4 km/h (2 Bft) 100,00 %
30.09.2019 21:12 15,0 C 14,4 C 18,3 C 84 % 1011,6 hPa 0,0 l/m 0 min 0 min 0 W/m 3,2 km/h (1 Bft) 97,87 %
30.09.2019 21:14 15,0 C 14,4 C 18,3 C 84 % 1011,6 hPa 0,0 l/m 0 min 0 min 0 W/m 12,9 km/h (3 Bft) 97,87 %
30.09.2019 21:16 15,0 C 14,4 C 18,3 C 85 % 1011,6 hPa 0,0 l/m 0 min 0 min 0 W/m 12,9 km/h (3 Bft) 95,74 %
30.09.2019 21:18 15,0 C 14,4 C 18,3 C 85 % 1011,5 hPa 0,0 l/m 0 min 0 min 0 W/m 3,2 km/h (1 Bft) 95,74 %
30.09.2019 21:20 15,0 C 14,4 C 18,3 C 85 % 1011,5 hPa 0,0 l/m 0 min 0 min 0 W/m 6,4 km/h (2 Bft) 95,74 %
30.09.2019 21:22 15,0 C 14,4 C 18,3 C 85 % 1011,5 hPa 0,0 l/m 0 min 0 min 0 W/m 6,4 km/h (2 Bft) 93,48 %
30.09.2019 21:24 15,0 C 14,4 C 18,3 C 85 % 1011,5 hPa 0,0 l/m 0 min 0 min 0 W/m 6,4 km/h (2 Bft) 95,74 %
30.09.2019 21:26 15,0 C 14,4 C 18,3 C 85 % 1011,5 hPa 0,0 l/m 0 min 0 min 0 W/m 6,4 km/h (2 Bft) 93,62 %
30.09.2019 21:28 15,0 C 14,4 C 18,3 C 85 % 1011,4 hPa 0,0 l/m 0 min 0 min 0 W/m 6,4 km/h (2 Bft) 93,62 %
30.09.2019 21:30 15,0 C 14,4 C 18,3 C 85 % 1011,3 hPa 0,0 l/m 0 min 0 min 0 W/m 6,4 km/h (2 Bft) 95,74 %
30.09.2019 21:32 15,0 C 14,4 C 18,3 C 85 % 1011,3 hPa 0,0 l/m 0 min 0 min 0 W/m 6,4 km/h (2 Bft) 95,65 %
30.09.2019 21:34 15,0 C 14,4 C 18,3 C 85 % 1011,3 hPa 0,0 l/m 0 min 0 min 0 W/m 6,4 km/h (2 Bft) 95,74 %
30.09.2019 21:36 14,9 C 14,4 C 18,3 C 85 % 1011,2 hPa 0,0 l/m 0 min 0 min 0 W/m 3,2 km/h (1 Bft) 95,74 %
30.09.2019 21:38 14,9 C 14,4 C 18,3 C 85 % 1011,2 hPa 0,0 l/m 0 min 0 min 0 W/m 6,4 km/h (2 Bft) 95,74 %
30.09.2019 21:40 14,9 C 13,9 C 18,3 C 85 % 1011,3 hPa 0,0 l/m 0 min 0 min 0 W/m 6,4 km/h (2 Bft) 95,74 %
30.09.2019 21:42 15,0 C 13,9 C 18,3 C 85 % 1011,3 hPa 0,0 l/m 0 min 0 min 0 W/m 6,4 km/h (2 Bft) 93,62 %
30.09.2019 21:44 14,9 C 13,9 C 18,3 C 85 % 1011,2 hPa 0,0 l/m 0 min 0 min 0 W/m 6,4 km/h (2 Bft) 95,65 %
30.09.2019 21:46 14,9 C 14,4 C 18,3 C 85 % 1011,2 hPa 0,0 l/m 0 min 0 min 0 W/m 12,9 km/h (3 Bft) 91,49 %
30.09.2019 21:48 14,9 C 14,4 C 18,3 C 85 % 1011,2 hPa 0,0 l/m 0 min 0 min 0 W/m 6,4 km/h (2 Bft) 93,62 %
30.09.2019 21:50 14,9 C 14,4 C 18,3 C 85 % 1011,1 hPa 0,0 l/m 0 min 0 min 0 W/m 19,3 km/h (3 Bft) 97,87 %
30.09.2019 21:52 14,9 C 14,4 C 18,3 C 84 % 1011,1 hPa 0,0 l/m 0 min 0 min 0 W/m 19,3 km/h (3 Bft) 95,74 %
30.09.2019 21:54 14,9 C 14,4 C 18,3 C 84 % 1011,1 hPa 0,0 l/m 0 min 0 min 0 W/m 16,1 km/h (3 Bft) 93,62 %
30.09.2019 21:56 14,9 C 14,4 C 18,3 C 84 % 1011,1 hPa 0,0 l/m 0 min 0 min 0 W/m 12,9 km/h (3 Bft) 95,65 %
30.09.2019 21:58 14,9 C 14,4 C 18,3 C 84 % 1011,0 hPa 0,0 l/m 0 min 0 min 0 W/m 16,1 km/h (3 Bft) 95,74 %
30.09.2019 22:00 14,9 C 14,4 C 18,3 C 84 % 1011,0 hPa 0,0 l/m 0 min 0 min 0 W/m 16,1 km/h (3 Bft) 95,74 %
30.09.2019 22:02 14,9 C 14,4 C 18,3 C 84 % 1011,0 hPa 0,0 l/m 0 min 0 min 0 W/m 16,1 km/h (3 Bft) 95,74 %
30.09.2019 22:04 14,9 C 14,4 C 18,3 C 84 % 1010,9 hPa 0,0 l/m 0 min 0 min 0 W/m 12,9 km/h (3 Bft) 93,62 %
30.09.2019 22:06 14,9 C 14,4 C 18,3 C 84 % 1010,9 hPa 0,0 l/m 0 min 0 min 0 W/m 12,9 km/h (3 Bft) 97,87 %
30.09.2019 22:08 14,9 C 14,4 C 18,3 C 84 % 1011,0 hPa 0,0 l/m 0 min 0 min 0 W/m 6,4 km/h (2 Bft) 95,65 %
30.09.2019 22:10 15,0 C 14,4 C 18,3 C 84 % 1011,1 hPa 0,0 l/m 0 min 0 min 0 W/m 19,3 km/h (3 Bft) 97,87 %
30.09.2019 22:12 15,0 C 14,4 C 18,3 C 84 % 1011,1 hPa 0,0 l/m 0 min 0 min 0 W/m 16,1 km/h (3 Bft) 97,87 %
30.09.2019 22:14 15,0 C 14,4 C 18,3 C 84 % 1011,1 hPa 0,0 l/m 0 min 0 min 0 W/m 16,1 km/h (3 Bft) 100,00 %
30.09.2019 22:16 15,0 C 14,4 C 18,3 C 84 % 1011,1 hPa 0,0 l/m 0 min 0 min 0 W/m 12,9 km/h (3 Bft) 100,00 %
30.09.2019 22:18 15,0 C 14,4 C 18,3 C 84 % 1011,0 hPa 0,0 l/m 0 min 0 min 0 W/m 25,7 km/h (4 Bft) 100,00 %
30.09.2019 22:20 15,0 C 14,4 C 18,3 C 84 % 1011,0 hPa 0,0 l/m 0 min 0 min 0 W/m 19,3 km/h (3 Bft) 100,00 %
30.09.2019 22:22 15,1 C 14,4 C 18,3 C 84 % 1011,1 hPa 0,0 l/m 0 min 0 min 0 W/m 16,1 km/h (3 Bft) 100,00 %
30.09.2019 22:24 15,1 C 14,4 C 18,3 C 84 % 1011,1 hPa 0,0 l/m 0 min 0 min 0 W/m 22,5 km/h (4 Bft) 100,00 %
30.09.2019 22:26 15,1 C 14,4 C 18,3 C 84 % 1011,0 hPa 0,0 l/m 0 min 0 min 0 W/m 16,1 km/h (3 Bft) 100,00 %
30.09.2019 22:28 15,1 C 14,4 C 18,3 C 84 % 1011,0 hPa 0,0 l/m 0 min 0 min 0 W/m 19,3 km/h (3 Bft) 97,87 %
30.09.2019 22:30 15,1 C 14,4 C 18,3 C 84 % 1011,0 hPa 0,0 l/m 0 min 0 min 0 W/m 22,5 km/h (4 Bft) 100,00 %
30.09.2019 22:32 15,1 C 14,4 C 18,3 C 84 % 1010,9 hPa 0,0 l/m 0 min 0 min 0 W/m 16,1 km/h (3 Bft) 100,00 %
30.09.2019 22:34 15,1 C 14,4 C 18,3 C 84 % 1010,9 hPa 0,0 l/m 0 min 0 min 0 W/m 19,3 km/h (3 Bft) 100,00 %
30.09.2019 22:36 15,1 C 14,4 C 18,3 C 84 % 1011,0 hPa 0,0 l/m 0 min 0 min 0 W/m 19,3 km/h (3 Bft) 100,00 %
30.09.2019 22:38 15,1 C 14,4 C 18,3 C 84 % 1011,0 hPa 0,0 l/m 0 min 0 min 0 W/m 16,1 km/h (3 Bft) 100,00 %
30.09.2019 22:40 15,1 C 14,4 C 18,3 C 84 % 1011,0 hPa 0,0 l/m 0 min 0 min 0 W/m 16,1 km/h (3 Bft) 100,00 %
30.09.2019 22:42 15,1 C 14,4 C 18,3 C 84 % 1011,0 hPa 0,0 l/m 0 min 0 min 0 W/m 16,1 km/h (3 Bft) 100,00 %
30.09.2019 22:44 15,1 C 14,4 C 18,3 C 84 % 1010,9 hPa 0,0 l/m 0 min 0 min 0 W/m 16,1 km/h (3 Bft) 100,00 %
30.09.2019 22:46 15,1 C 14,4 C 18,3 C 85 % 1010,9 hPa 0,0 l/m 0 min 0 min 0 W/m 19,3 km/h (3 Bft) 97,87 %
30.09.2019 22:48 15,2 C 14,4 C 18,3 C 85 % 1010,8 hPa 0,0 l/m 0 min 0 min 0 W/m 16,1 km/h (3 Bft) 100,00 %
30.09.2019 22:50 15,2 C 14,4 C 18,3 C 85 % 1010,8 hPa 0,0 l/m 0 min 0 min 0 W/m 12,9 km/h (3 Bft) 100,00 %
30.09.2019 22:52 15,2 C 14,4 C 18,3 C 85 % 1010,7 hPa 0,0 l/m 0 min 0 min 0 W/m 12,9 km/h (3 Bft) 100,00 %
30.09.2019 22:54 15,2 C 14,4 C 18,3 C 85 % 1010,6 hPa 0,0 l/m 0 min 0 min 0 W/m 16,1 km/h (3 Bft) 100,00 %
30.09.2019 22:56 15,2 C 14,4 C 18,3 C 85 % 1010,6 hPa 0,0 l/m 0 min 0 min 0 W/m 16,1 km/h (3 Bft) 97,87 %
30.09.2019 22:58 15,2 C 14,4 C 18,3 C 85 % 1010,6 hPa 0,0 l/m 0 min 0 min 0 W/m 12,9 km/h (3 Bft) 97,87 %
30.09.2019 23:00 15,1 C 14,4 C 18,3 C 85 % 1010,5 hPa 0,0 l/m 0 min 0 min 0 W/m 16,1 km/h (3 Bft) 97,87 %
30.09.2019 23:02 15,1 C 14,4 C 18,3 C 85 % 1010,5 hPa 0,0 l/m 0 min 0 min 0 W/m 16,1 km/h (3 Bft) 97,87 %
30.09.2019 23:04 15,1 C 14,4 C 18,3 C 85 % 1010,5 hPa 0,0 l/m 0 min 0 min 0 W/m 16,1 km/h (3 Bft) 97,87 %
30.09.2019 23:06 15,1 C 13,9 C 18,3 C 85 % 1010,5 hPa 0,0 l/m 0 min 0 min 0 W/m 6,4 km/h (2 Bft) 97,83 %
30.09.2019 23:08 15,1 C 13,9 C 18,3 C 85 % 1010,5 hPa 0,0 l/m 0 min 0 min 0 W/m 6,4 km/h (2 Bft) 97,87 %
30.09.2019 23:10 15,1 C 13,9 C 18,3 C 86 % 1010,5 hPa 0,0 l/m 0 min 0 min 0 W/m 6,4 km/h (2 Bft) 97,87 %
30.09.2019 23:12 15,1 C 13,9 C 18,3 C 86 % 1010,5 hPa 0,0 l/m 0 min 0 min 0 W/m 6,4 km/h (2 Bft) 97,87 %
30.09.2019 23:14 15,1 C 13,9 C 18,3 C 86 % 1010,5 hPa 0,0 l/m 0 min 0 min 0 W/m 16,1 km/h (3 Bft) 97,87 %
30.09.2019 23:16 15,1 C 13,9 C 18,3 C 86 % 1010,5 hPa 0,0 l/m 0 min 0 min 0 W/m 16,1 km/h (3 Bft) 97,87 %
30.09.2019 23:18 15,1 C 13,9 C 18,3 C 86 % 1010,5 hPa 0,0 l/m 0 min 0 min 0 W/m 12,9 km/h (3 Bft) 97,83 %
30.09.2019 23:20 15,1 C 13,9 C 18,3 C 86 % 1010,5 hPa 0,0 l/m 0 min 0 min 0 W/m 22,5 km/h (4 Bft) 97,87 %
30.09.2019 23:22 15,1 C 13,9 C 18,3 C 86 % 1010,4 hPa 0,0 l/m 0 min 0 min 0 W/m 12,9 km/h (3 Bft) 97,87 %
30.09.2019 23:24 15,0 C 13,9 C 18,3 C 86 % 1010,4 hPa 0,0 l/m 0 min 0 min 0 W/m 9,7 km/h (2 Bft) 97,87 %
30.09.2019 23:26 15,0 C 13,9 C 18,3 C 87 % 1010,3 hPa 0,0 l/m 0 min 0 min 0 W/m 16,1 km/h (3 Bft) 97,87 %
30.09.2019 23:28 15,0 C 13,9 C 18,3 C 87 % 1010,3 hPa 0,0 l/m 0 min 0 min 0 W/m 12,9 km/h (3 Bft) 97,87 %
30.09.2019 23:30 15,0 C 13,9 C 18,3 C 87 % 1010,3 hPa 0,0 l/m 0 min 0 min 0 W/m 12,9 km/h (3 Bft) 97,83 %
30.09.2019 23:32 15,0 C 13,9 C 18,3 C 87 % 1010,3 hPa 0,0 l/m 0 min 0 min 0 W/m 16,1 km/h (3 Bft) 97,87 %
30.09.2019 23:34 14,9 C 13,9 C 18,3 C 87 % 1010,3 hPa 0,0 l/m 0 min 0 min 0 W/m 12,9 km/h (3 Bft) 97,87 %
30.09.2019 23:36 14,9 C 13,9 C 18,3 C 87 % 1010,3 hPa 0,0 l/m 0 min 0 min 0 W/m 12,9 km/h (3 Bft) 97,87 %
30.09.2019 23:38 14,9 C 13,9 C 18,3 C 87 % 1010,3 hPa 0,0 l/m 0 min 0 min 0 W/m 19,3 km/h (3 Bft) 95,74 %
30.09.2019 23:40 14,9 C 13,9 C 18,3 C 87 % 1010,3 hPa 0,0 l/m 0 min 0 min 0 W/m 12,9 km/h (3 Bft) 97,87 %
30.09.2019 23:42 14,9 C 13,9 C 18,3 C 87 % 1010,3 hPa 0,0 l/m 0 min 0 min 0 W/m 16,1 km/h (3 Bft) 97,83 %
30.09.2019 23:44 14,9 C 13,9 C 18,3 C 87 % 1010,2 hPa 0,0 l/m 0 min 0 min 0 W/m 9,7 km/h (2 Bft) 97,87 %
30.09.2019 23:46 14,9 C 13,9 C 18,3 C 87 % 1010,2 hPa 0,0 l/m 0 min 0 min 0 W/m 16,1 km/h (3 Bft) 97,87 %
30.09.2019 23:48 14,9 C 13,9 C 18,3 C 87 % 1010,3 hPa 0,0 l/m 0 min 0 min 0 W/m 12,9 km/h (3 Bft) 97,87 %
30.09.2019 23:50 14,9 C 13,9 C 18,3 C 87 % 1010,2 hPa 0,0 l/m 0 min 0 min 0 W/m 16,1 km/h (3 Bft) 97,87 %
30.09.2019 23:52 14,9 C 13,9 C 18,3 C 88 % 1010,1 hPa 0,0 l/m 0 min 0 min 0 W/m 16,1 km/h (3 Bft) 97,83 %
30.09.2019 23:54 14,9 C 13,9 C 18,3 C 88 % 1010,1 hPa 0,0 l/m 0 min 0 min 0 W/m 12,9 km/h (3 Bft) 97,87 %
30.09.2019 23:56 14,8 C 13,9 C 18,3 C 88 % 1010,1 hPa 0,0 l/m 0 min 0 min 0 W/m 16,1 km/h (3 Bft) 97,87 %
30.09.2019 23:58 14,8 C 13,9 C 18,3 C 88 % 1010,0 hPa 0,0 l/m 0 min 0 min 0 W/m 12,9 km/h (3 Bft) 95,74 %
_ Min-Zeit 08:46 06:14 00:00 15:44 00:00 - - - - 19:04 10:10
Minimum _ 12,4 C 11,1 C 18,3 C 72 % 996,8 hPa - - - - 0,0 km/h (0 Bft) 69,77 %
_ Max-Zeit 15:42 13:10 00:00 00:08 16:30 01:22 12:08 06:08 13:32 00:52 00:00
Maximum _ 18,3 C 22,8 C 18,3 C 98 % 1012,6 hPa 0,2 l/m 4 min 4 min 750 W/m 38,6 km/h
W-NW (5 Bft)
100,00 %
Durchschnitt _ 14,9 C 14,6 C 18,3 C 88 % 1008,3 hPa #3,4 l/m #3:36 h #3:16 h 188 W/m 15,4 km/h (3 Bft) 97,38 %
© 2019 W. Hausmann